Wetterdaten: Freitag, 11.03.2022
Datum Zeit Temp. Aussen Temp. o. S. Temp +5cm Feuchte Auss Luftdruck Regen Sonnenschein Regendauer Solar Windben Empfang
11.03.2022 00:00 7,5 C 6,7 C 2,8 C 56 % 1019,8 hPa 0,0 l/m 0 min 0 min 0 W/m 6,4 km/h (2 Bft) 95,74 %
11.03.2022 00:02 7,5 C 6,7 C 2,8 C 56 % 1019,7 hPa 0,0 l/m 0 min 0 min 0 W/m 6,4 km/h (2 Bft) 97,56 %
11.03.2022 00:04 7,5 C 6,7 C 2,8 C 56 % 1019,8 hPa 0,0 l/m 0 min 0 min 0 W/m 6,4 km/h (2 Bft) 95,74 %
11.03.2022 00:08 7,5 C 6,7 C 2,8 C 56 % 1019,8 hPa 0,0 l/m 0 min 0 min 0 W/m 12,9 km/h (3 Bft) 97,87 %
11.03.2022 00:10 7,6 C 6,7 C 2,8 C 56 % 1019,8 hPa 0,0 l/m 0 min 0 min 0 W/m 12,9 km/h (3 Bft) 97,87 %
11.03.2022 00:12 7,6 C 6,7 C 2,8 C 56 % 1019,7 hPa 0,0 l/m 0 min 0 min 0 W/m 19,3 km/h (3 Bft) 95,65 %
11.03.2022 00:14 7,6 C 6,7 C 2,8 C 56 % 1019,7 hPa 0,0 l/m 0 min 0 min 0 W/m 6,4 km/h (2 Bft) 95,74 %
11.03.2022 00:16 7,6 C 6,7 C 2,8 C 56 % 1019,7 hPa 0,0 l/m 0 min 0 min 0 W/m 6,4 km/h (2 Bft) 97,87 %
11.03.2022 00:18 7,6 C 6,7 C 2,8 C 56 % 1019,7 hPa 0,0 l/m 0 min 0 min 0 W/m 6,4 km/h (2 Bft) 97,87 %
11.03.2022 00:20 7,6 C 6,7 C 2,8 C 56 % 1019,7 hPa 0,0 l/m 0 min 0 min 0 W/m 12,9 km/h (3 Bft) 97,87 %
11.03.2022 00:22 7,6 C 6,7 C 2,8 C 56 % 1019,7 hPa 0,0 l/m 0 min 0 min 0 W/m 6,4 km/h (2 Bft) 95,74 %
11.03.2022 00:24 7,6 C 6,7 C 2,8 C 56 % 1019,6 hPa 0,0 l/m 0 min 0 min 0 W/m 12,9 km/h (3 Bft) 97,83 %
11.03.2022 00:26 7,5 C 6,7 C 2,8 C 56 % 1019,7 hPa 0,0 l/m 0 min 0 min 0 W/m 6,4 km/h (2 Bft) 97,87 %
11.03.2022 00:28 7,5 C 6,7 C 2,8 C 56 % 1019,7 hPa 0,0 l/m 0 min 0 min 0 W/m 6,4 km/h (2 Bft) 100,00 %
11.03.2022 00:30 7,5 C 6,7 C 2,8 C 56 % 1019,6 hPa 0,0 l/m 0 min 0 min 0 W/m 6,4 km/h (2 Bft) 100,00 %
11.03.2022 00:32 7,5 C 6,7 C 2,8 C 56 % 1019,6 hPa 0,0 l/m 0 min 0 min 0 W/m 16,1 km/h (3 Bft) 95,74 %
11.03.2022 00:34 7,5 C 6,7 C 2,8 C 56 % 1019,6 hPa 0,0 l/m 0 min 0 min 0 W/m 16,1 km/h (3 Bft) 97,87 %
11.03.2022 00:36 7,5 C 6,7 C 2,8 C 56 % 1019,6 hPa 0,0 l/m 0 min 0 min 0 W/m 6,4 km/h (2 Bft) 100,00 %
11.03.2022 00:38 7,5 C 6,7 C 2,8 C 56 % 1019,6 hPa 0,0 l/m 0 min 0 min 0 W/m 6,4 km/h (2 Bft) 100,00 %
11.03.2022 00:40 7,5 C 6,7 C 2,8 C 56 % 1019,6 hPa 0,0 l/m 0 min 0 min 0 W/m 6,4 km/h (2 Bft) 100,00 %
11.03.2022 00:42 7,5 C 6,7 C 2,8 C 56 % 1019,6 hPa 0,0 l/m 0 min 0 min 0 W/m 6,4 km/h (2 Bft) 97,87 %
11.03.2022 00:44 7,5 C 6,7 C 2,8 C 56 % 1019,6 hPa 0,0 l/m 0 min 0 min 0 W/m 6,4 km/h (2 Bft) 95,74 %
11.03.2022 00:46 7,5 C 6,7 C 2,8 C 56 % 1019,6 hPa 0,0 l/m 0 min 0 min 0 W/m 3,2 km/h (1 Bft) 100,00 %
11.03.2022 00:48 7,4 C 6,7 C 2,8 C 56 % 1019,5 hPa 0,0 l/m 0 min 0 min 0 W/m 16,1 km/h (3 Bft) 97,83 %
11.03.2022 00:50 7,4 C 6,7 C 2,8 C 56 % 1019,6 hPa 0,0 l/m 0 min 0 min 0 W/m 9,7 km/h (2 Bft) 97,87 %
11.03.2022 00:52 7,4 C 6,1 C 2,8 C 56 % 1019,6 hPa 0,0 l/m 0 min 0 min 0 W/m 6,4 km/h (2 Bft) 97,87 %
11.03.2022 00:54 7,4 C 6,1 C 2,8 C 56 % 1019,5 hPa 0,0 l/m 0 min 0 min 0 W/m 3,2 km/h (1 Bft) 95,74 %
11.03.2022 00:56 7,4 C 6,1 C 2,8 C 56 % 1019,5 hPa 0,0 l/m 0 min 0 min 0 W/m 9,7 km/h (2 Bft) 97,87 %
11.03.2022 00:58 7,4 C 6,7 C 2,8 C 56 % 1019,5 hPa 0,0 l/m 0 min 0 min 0 W/m 6,4 km/h (2 Bft) 97,87 %
11.03.2022 01:00 7,3 C 6,7 C 2,8 C 56 % 1019,5 hPa 0,0 l/m 0 min 0 min 0 W/m 12,9 km/h (3 Bft) 97,83 %
11.03.2022 01:02 7,4 C 6,7 C 2,8 C 56 % 1019,5 hPa 0,0 l/m 0 min 0 min 0 W/m 3,2 km/h (1 Bft) 97,87 %
11.03.2022 01:04 7,3 C 6,7 C 2,8 C 56 % 1019,5 hPa 0,0 l/m 0 min 0 min 0 W/m 12,9 km/h (3 Bft) 97,87 %
11.03.2022 01:06 7,3 C 6,7 C 2,8 C 56 % 1019,5 hPa 0,0 l/m 0 min 0 min 0 W/m 6,4 km/h (2 Bft) 97,87 %
11.03.2022 01:08 7,3 C 6,7 C 2,8 C 56 % 1019,5 hPa 0,0 l/m 0 min 0 min 0 W/m 12,9 km/h (3 Bft) 97,87 %
11.03.2022 01:10 7,3 C 6,7 C 2,8 C 56 % 1019,5 hPa 0,0 l/m 0 min 0 min 0 W/m 16,1 km/h (3 Bft) 97,87 %
11.03.2022 01:12 7,4 C 6,7 C 2,8 C 56 % 1019,5 hPa 0,0 l/m 0 min 0 min 0 W/m 16,1 km/h (3 Bft) 95,65 %
11.03.2022 01:14 7,4 C 6,7 C 2,8 C 56 % 1019,4 hPa 0,0 l/m 0 min 0 min 0 W/m 12,9 km/h (3 Bft) 97,87 %
11.03.2022 01:16 7,4 C 6,7 C 2,8 C 55 % 1019,4 hPa 0,0 l/m 0 min 0 min 0 W/m 12,9 km/h (3 Bft) 95,74 %
11.03.2022 01:18 7,4 C 6,7 C 2,8 C 55 % 1019,4 hPa 0,0 l/m 0 min 0 min 0 W/m 16,1 km/h (3 Bft) 97,87 %
11.03.2022 01:20 7,4 C 6,7 C 2,8 C 55 % 1019,3 hPa 0,0 l/m 0 min 0 min 0 W/m 16,1 km/h (3 Bft) 95,74 %
11.03.2022 01:22 7,5 C 7,2 C 3,3 C 55 % 1019,3 hPa 0,0 l/m 0 min 0 min 0 W/m 22,5 km/h (4 Bft) 93,62 %
11.03.2022 01:24 7,6 C 7,2 C 3,3 C 55 % 1019,4 hPa 0,0 l/m 0 min 0 min 0 W/m 19,3 km/h (3 Bft) 93,48 %
11.03.2022 01:26 7,6 C 7,2 C 3,3 C 54 % 1019,3 hPa 0,0 l/m 0 min 0 min 0 W/m 16,1 km/h (3 Bft) 95,74 %
11.03.2022 01:28 7,7 C 7,2 C 3,3 C 54 % 1019,3 hPa 0,0 l/m 0 min 0 min 0 W/m 22,5 km/h (4 Bft) 93,62 %
11.03.2022 01:30 7,7 C 7,2 C 3,3 C 54 % 1019,4 hPa 0,0 l/m 0 min 0 min 0 W/m 16,1 km/h (3 Bft) 97,87 %
11.03.2022 01:32 7,8 C 7,2 C 3,3 C 54 % 1019,3 hPa 0,0 l/m 0 min 0 min 0 W/m 19,3 km/h (3 Bft) 97,87 %
11.03.2022 01:34 7,8 C 7,2 C 3,3 C 54 % 1019,4 hPa 0,0 l/m 0 min 0 min 0 W/m 19,3 km/h (3 Bft) 97,87 %
11.03.2022 01:36 7,8 C 7,2 C 3,3 C 54 % 1019,4 hPa 0,0 l/m 0 min 0 min 0 W/m 12,9 km/h (3 Bft) 97,83 %
11.03.2022 01:38 7,8 C 7,2 C 3,3 C 54 % 1019,5 hPa 0,0 l/m 0 min 0 min 0 W/m 16,1 km/h (3 Bft) 95,74 %
11.03.2022 01:40 7,9 C 7,2 C 3,3 C 54 % 1019,5 hPa 0,0 l/m 0 min 0 min 0 W/m 16,1 km/h (3 Bft) 97,87 %
11.03.2022 01:42 7,9 C 7,2 C 3,3 C 53 % 1019,4 hPa 0,0 l/m 0 min 0 min 0 W/m 16,1 km/h (3 Bft) 97,87 %
11.03.2022 01:44 7,9 C 7,2 C 3,3 C 53 % 1019,5 hPa 0,0 l/m 0 min 0 min 0 W/m 19,3 km/h (3 Bft) 97,87 %
11.03.2022 01:46 7,9 C 7,2 C 3,3 C 53 % 1019,4 hPa 0,0 l/m 0 min 0 min 0 W/m 16,1 km/h (3 Bft) 97,83 %
11.03.2022 01:48 7,9 C 7,2 C 3,3 C 53 % 1019,4 hPa 0,0 l/m 0 min 0 min 0 W/m 22,5 km/h (4 Bft) 97,87 %
11.03.2022 01:50 7,9 C 7,2 C 3,3 C 53 % 1019,4 hPa 0,0 l/m 0 min 0 min 0 W/m 25,7 km/h (4 Bft) 100,00 %
11.03.2022 01:52 7,9 C 7,2 C 3,3 C 53 % 1019,4 hPa 0,0 l/m 0 min 0 min 0 W/m 16,1 km/h (3 Bft) 100,00 %
11.03.2022 01:54 7,9 C 7,2 C 3,3 C 53 % 1019,4 hPa 0,0 l/m 0 min 0 min 0 W/m 19,3 km/h (3 Bft) 100,00 %
11.03.2022 01:56 7,9 C 7,2 C 3,3 C 53 % 1019,4 hPa 0,0 l/m 0 min 0 min 0 W/m 19,3 km/h (3 Bft) 100,00 %
11.03.2022 01:58 7,9 C 7,2 C 3,3 C 53 % 1019,3 hPa 0,0 l/m 0 min 0 min 0 W/m 19,3 km/h (3 Bft) 100,00 %
11.03.2022 02:00 7,9 C 7,2 C 3,3 C 53 % 1019,3 hPa 0,0 l/m 0 min 0 min 0 W/m 19,3 km/h (3 Bft) 100,00 %
11.03.2022 02:02 7,9 C 7,2 C 3,3 C 53 % 1019,3 hPa 0,0 l/m 0 min 0 min 0 W/m 19,3 km/h (3 Bft) 100,00 %
11.03.2022 02:04 8,0 C 7,2 C 3,3 C 53 % 1019,2 hPa 0,0 l/m 0 min 0 min 0 W/m 16,1 km/h (3 Bft) 100,00 %
11.03.2022 02:06 8,0 C 7,2 C 3,3 C 53 % 1019,3 hPa 0,0 l/m 0 min 0 min 0 W/m 16,1 km/h (3 Bft) 100,00 %
11.03.2022 02:08 8,0 C 7,2 C 3,3 C 53 % 1019,3 hPa 0,0 l/m 0 min 0 min 0 W/m 19,3 km/h (3 Bft) 100,00 %
11.03.2022 02:10 7,9 C 7,2 C 3,3 C 53 % 1019,2 hPa 0,0 l/m 0 min 0 min 0 W/m 22,5 km/h (4 Bft) 100,00 %
11.03.2022 02:12 7,9 C 7,2 C 3,3 C 53 % 1019,2 hPa 0,0 l/m 0 min 0 min 0 W/m 16,1 km/h (3 Bft) 100,00 %
11.03.2022 02:14 7,9 C 7,2 C 3,3 C 53 % 1019,2 hPa 0,0 l/m 0 min 0 min 0 W/m 29,0 km/h (5 Bft) 100,00 %
11.03.2022 02:16 7,9 C 7,2 C 3,3 C 53 % 1019,1 hPa 0,0 l/m 0 min 0 min 0 W/m 16,1 km/h (3 Bft) 100,00 %
11.03.2022 02:18 7,9 C 7,2 C 3,3 C 53 % 1019,1 hPa 0,0 l/m 0 min 0 min 0 W/m 19,3 km/h (3 Bft) 100,00 %
11.03.2022 02:20 7,9 C 6,7 C 3,3 C 53 % 1019,1 hPa 0,0 l/m 0 min 0 min 0 W/m 19,3 km/h (3 Bft) 100,00 %
11.03.2022 02:22 7,9 C 6,7 C 3,3 C 53 % 1019,1 hPa 0,0 l/m 0 min 0 min 0 W/m 16,1 km/h (3 Bft) 100,00 %
11.03.2022 02:24 7,8 C 6,7 C 2,8 C 53 % 1019,1 hPa 0,0 l/m 0 min 0 min 0 W/m 16,1 km/h (3 Bft) 100,00 %
11.03.2022 02:26 7,8 C 6,7 C 2,8 C 53 % 1019,0 hPa 0,0 l/m 0 min 0 min 0 W/m 19,3 km/h (3 Bft) 97,87 %
11.03.2022 02:28 7,8 C 6,7 C 2,8 C 53 % 1019,0 hPa 0,0 l/m 0 min 0 min 0 W/m 22,5 km/h (4 Bft) 100,00 %
11.03.2022 02:30 7,8 C 6,7 C 2,8 C 53 % 1019,0 hPa 0,0 l/m 0 min 0 min 0 W/m 12,9 km/h (3 Bft) 100,00 %
11.03.2022 02:32 7,8 C 6,7 C 2,8 C 53 % 1019,0 hPa 0,0 l/m 0 min 0 min 0 W/m 19,3 km/h (3 Bft) 97,87 %
11.03.2022 02:34 7,7 C 6,7 C 2,8 C 53 % 1018,9 hPa 0,0 l/m 0 min 0 min 0 W/m 22,5 km/h (4 Bft) 100,00 %
11.03.2022 02:36 7,7 C 6,7 C 2,8 C 53 % 1018,9 hPa 0,0 l/m 0 min 0 min 0 W/m 12,9 km/h (3 Bft) 97,87 %
11.03.2022 02:38 7,7 C 6,7 C 2,8 C 53 % 1018,9 hPa 0,0 l/m 0 min 0 min 0 W/m 16,1 km/h (3 Bft) 97,87 %
11.03.2022 02:40 7,6 C 6,7 C 2,8 C 53 % 1018,9 hPa 0,0 l/m 0 min 0 min 0 W/m 16,1 km/h (3 Bft) 97,87 %
11.03.2022 02:42 7,6 C 6,7 C 2,8 C 53 % 1018,9 hPa 0,0 l/m 0 min 0 min 0 W/m 12,9 km/h (3 Bft) 97,87 %
11.03.2022 02:44 7,6 C 6,7 C 2,8 C 53 % 1018,9 hPa 0,0 l/m 0 min 0 min 0 W/m 22,5 km/h (4 Bft) 97,87 %
11.03.2022 02:46 7,6 C 6,7 C 2,8 C 54 % 1018,9 hPa 0,0 l/m 0 min 0 min 0 W/m 12,9 km/h (3 Bft) 97,83 %
11.03.2022 02:48 7,6 C 6,7 C 2,8 C 53 % 1018,8 hPa 0,0 l/m 0 min 0 min 0 W/m 16,1 km/h (3 Bft) 95,74 %
11.03.2022 02:50 7,6 C 6,7 C 2,8 C 54 % 1018,8 hPa 0,0 l/m 0 min 0 min 0 W/m 12,9 km/h (3 Bft) 97,87 %
11.03.2022 02:52 7,5 C 6,7 C 2,8 C 54 % 1018,8 hPa 0,0 l/m 0 min 0 min 0 W/m 16,1 km/h (3 Bft) 97,87 %
11.03.2022 02:54 7,5 C 6,7 C 2,8 C 54 % 1018,8 hPa 0,0 l/m 0 min 0 min 0 W/m 12,9 km/h (3 Bft) 97,87 %
11.03.2022 02:56 7,4 C 6,1 C 2,8 C 54 % 1018,8 hPa 0,0 l/m 0 min 0 min 0 W/m 6,4 km/h (2 Bft) 97,87 %
11.03.2022 02:58 7,4 C 6,7 C 2,8 C 54 % 1018,9 hPa 0,0 l/m 0 min 0 min 0 W/m 19,3 km/h (3 Bft) 97,83 %
11.03.2022 03:00 7,4 C 6,7 C 2,8 C 54 % 1018,8 hPa 0,0 l/m 0 min 0 min 0 W/m 12,9 km/h (3 Bft) 95,74 %
11.03.2022 03:02 7,4 C 6,7 C 2,8 C 54 % 1018,8 hPa 0,0 l/m 0 min 0 min 0 W/m 12,9 km/h (3 Bft) 97,87 %
11.03.2022 03:04 7,4 C 6,7 C 2,8 C 54 % 1018,7 hPa 0,0 l/m 0 min 0 min 0 W/m 19,3 km/h (3 Bft) 95,74 %
11.03.2022 03:06 7,4 C 6,1 C 2,8 C 54 % 1018,7 hPa 0,0 l/m 0 min 0 min 0 W/m 12,9 km/h (3 Bft) 97,87 %
11.03.2022 03:08 7,3 C 6,1 C 2,8 C 54 % 1018,7 hPa 0,0 l/m 0 min 0 min 0 W/m 12,9 km/h (3 Bft) 93,62 %
11.03.2022 03:10 7,3 C 6,1 C 2,8 C 55 % 1018,6 hPa 0,0 l/m 0 min 0 min 0 W/m 12,9 km/h (3 Bft) 95,65 %
11.03.2022 03:12 7,3 C 6,1 C 2,2 C 55 % 1018,7 hPa 0,0 l/m 0 min 0 min 0 W/m 12,9 km/h (3 Bft) 95,74 %
11.03.2022 03:14 7,3 C 6,1 C 2,2 C 55 % 1018,6 hPa 0,0 l/m 0 min 0 min 0 W/m 16,1 km/h (3 Bft) 95,74 %
11.03.2022 03:16 7,2 C 6,1 C 2,2 C 55 % 1018,7 hPa 0,0 l/m 0 min 0 min 0 W/m 12,9 km/h (3 Bft) 93,62 %
11.03.2022 03:18 7,2 C 6,1 C 2,2 C 55 % 1018,6 hPa 0,0 l/m 0 min 0 min 0 W/m 19,3 km/h (3 Bft) 91,49 %
11.03.2022 03:20 7,2 C 6,1 C 2,2 C 55 % 1018,6 hPa 0,0 l/m 0 min 0 min 0 W/m 16,1 km/h (3 Bft) 95,74 %
11.03.2022 03:22 7,2 C 6,1 C 2,2 C 55 % 1018,6 hPa 0,0 l/m 0 min 0 min 0 W/m 16,1 km/h (3 Bft) 93,48 %
11.03.2022 03:24 7,1 C 6,1 C 2,2 C 55 % 1018,6 hPa 0,0 l/m 0 min 0 min 0 W/m 12,9 km/h (3 Bft) 95,74 %
11.03.2022 03:26 7,1 C 6,1 C 2,2 C 55 % 1018,6 hPa 0,0 l/m 0 min 0 min 0 W/m 16,1 km/h (3 Bft) 95,74 %
11.03.2022 03:28 7,1 C 6,1 C 2,2 C 56 % 1018,6 hPa 0,0 l/m 0 min 0 min 0 W/m 12,9 km/h (3 Bft) 93,62 %
11.03.2022 03:30 7,0 C 6,1 C 2,2 C 56 % 1018,6 hPa 0,0 l/m 0 min 0 min 0 W/m 12,9 km/h (3 Bft) 93,62 %
11.03.2022 03:32 7,0 C 6,1 C 2,2 C 56 % 1018,6 hPa 0,0 l/m 0 min 0 min 0 W/m 12,9 km/h (3 Bft) 93,62 %
11.03.2022 03:34 6,9 C 6,1 C 2,2 C 56 % 1018,6 hPa 0,0 l/m 0 min 0 min 0 W/m 12,9 km/h (3 Bft) 95,65 %
11.03.2022 03:36 6,9 C 6,1 C 2,2 C 56 % 1018,6 hPa 0,0 l/m 0 min 0 min 0 W/m 22,5 km/h (4 Bft) 95,74 %
11.03.2022 03:38 6,9 C 6,1 C 2,2 C 57 % 1018,5 hPa 0,0 l/m 0 min 0 min 0 W/m 12,9 km/h (3 Bft) 95,74 %
11.03.2022 03:40 6,9 C 6,1 C 2,2 C 57 % 1018,5 hPa 0,0 l/m 0 min 0 min 0 W/m 12,9 km/h (3 Bft) 95,65 %
11.03.2022 03:42 6,9 C 6,1 C 2,2 C 57 % 1018,5 hPa 0,0 l/m 0 min 0 min 0 W/m 16,1 km/h (3 Bft) 97,87 %
11.03.2022 03:44 6,8 C 6,1 C 2,2 C 56 % 1018,5 hPa 0,0 l/m 0 min 0 min 0 W/m 12,9 km/h (3 Bft) 97,83 %
11.03.2022 03:46 6,8 C 6,1 C 2,2 C 57 % 1018,4 hPa 0,0 l/m 0 min 0 min 0 W/m 16,1 km/h (3 Bft) 97,87 %
11.03.2022 03:48 6,8 C 6,1 C 2,2 C 57 % 1018,4 hPa 0,0 l/m 0 min 0 min 0 W/m 16,1 km/h (3 Bft) 97,87 %
11.03.2022 03:50 6,8 C 6,1 C 2,2 C 57 % 1018,5 hPa 0,0 l/m 0 min 0 min 0 W/m 12,9 km/h (3 Bft) 95,74 %
11.03.2022 03:52 6,8 C 6,1 C 2,2 C 57 % 1018,5 hPa 0,0 l/m 0 min 0 min 0 W/m 16,1 km/h (3 Bft) 97,87 %
11.03.2022 03:54 6,8 C 6,1 C 2,2 C 57 % 1018,4 hPa 0,0 l/m 0 min 0 min 0 W/m 12,9 km/h (3 Bft) 97,87 %
11.03.2022 03:56 6,8 C 6,1 C 2,2 C 57 % 1018,4 hPa 0,0 l/m 0 min 0 min 0 W/m 16,1 km/h (3 Bft) 97,87 %
11.03.2022 03:58 6,8 C 6,1 C 2,2 C 57 % 1018,4 hPa 0,0 l/m 0 min 0 min 0 W/m 16,1 km/h (3 Bft) 97,83 %
11.03.2022 04:00 6,8 C 6,1 C 2,2 C 57 % 1018,4 hPa 0,0 l/m 0 min 0 min 0 W/m 19,3 km/h (3 Bft) 97,87 %
11.03.2022 04:02 6,8 C 6,1 C 2,2 C 57 % 1018,4 hPa 0,0 l/m 0 min 0 min 0 W/m 6,4 km/h (2 Bft) 100,00 %
11.03.2022 04:04 6,8 C 6,1 C 2,2 C 57 % 1018,4 hPa 0,0 l/m 0 min 0 min 0 W/m 16,1 km/h (3 Bft) 100,00 %
11.03.2022 04:06 6,8 C 6,1 C 2,2 C 58 % 1018,4 hPa 0,0 l/m 0 min 0 min 0 W/m 12,9 km/h (3 Bft) 97,87 %
11.03.2022 04:08 6,8 C 6,1 C 2,2 C 58 % 1018,4 hPa 0,0 l/m 0 min 0 min 0 W/m 16,1 km/h (3 Bft) 97,87 %
11.03.2022 04:10 6,8 C 6,1 C 2,2 C 58 % 1018,3 hPa 0,0 l/m 0 min 0 min 0 W/m 16,1 km/h (3 Bft) 97,83 %
11.03.2022 04:12 6,8 C 5,6 C 2,2 C 58 % 1018,3 hPa 0,0 l/m 0 min 0 min 0 W/m 16,1 km/h (3 Bft) 100,00 %
11.03.2022 04:14 6,8 C 5,6 C 2,2 C 58 % 1018,4 hPa 0,0 l/m 0 min 0 min 0 W/m 12,9 km/h (3 Bft) 100,00 %
11.03.2022 04:16 6,8 C 5,6 C 2,2 C 58 % 1018,3 hPa 0,0 l/m 0 min 0 min 0 W/m 12,9 km/h (3 Bft) 97,87 %
11.03.2022 04:19 6,7 C 5,6 C 2,2 C 58 % 1018,3 hPa 0,0 l/m 0 min 0 min 0 W/m 16,1 km/h (3 Bft) 100,00 %
11.03.2022 04:20 6,7 C 5,6 C 2,2 C 58 % 1018,3 hPa 0,0 l/m 0 min 0 min 0 W/m 16,1 km/h (3 Bft) 100,00 %
11.03.2022 04:22 6,7 C 5,6 C 2,2 C 58 % 1018,3 hPa 0,0 l/m 0 min 0 min 0 W/m 12,9 km/h (3 Bft) 100,00 %
11.03.2022 04:24 6,7 C 5,6 C 2,2 C 58 % 1018,2 hPa 0,0 l/m 0 min 0 min 0 W/m 16,1 km/h (3 Bft) 100,00 %
11.03.2022 04:26 6,7 C 5,6 C 2,2 C 58 % 1018,3 hPa 0,0 l/m 0 min 0 min 0 W/m 19,3 km/h (3 Bft) 100,00 %
11.03.2022 04:28 6,7 C 6,1 C 2,2 C 59 % 1018,2 hPa 0,0 l/m 0 min 0 min 0 W/m 22,5 km/h (4 Bft) 97,87 %
11.03.2022 04:30 6,7 C 6,1 C 2,2 C 58 % 1018,2 hPa 0,0 l/m 0 min 0 min 0 W/m 22,5 km/h (4 Bft) 100,00 %
11.03.2022 04:32 6,7 C 6,1 C 2,2 C 58 % 1018,2 hPa 0,0 l/m 0 min 0 min 0 W/m 25,7 km/h (4 Bft) 100,00 %
11.03.2022 04:34 6,7 C 6,1 C 2,2 C 58 % 1018,2 hPa 0,0 l/m 0 min 0 min 0 W/m 16,1 km/h (3 Bft) 100,00 %
11.03.2022 04:36 6,7 C 5,6 C 2,2 C 58 % 1018,2 hPa 0,0 l/m 0 min 0 min 0 W/m 12,9 km/h (3 Bft) 100,00 %
11.03.2022 04:38 6,7 C 5,6 C 2,2 C 59 % 1018,1 hPa 0,0 l/m 0 min 0 min 0 W/m 16,1 km/h (3 Bft) 100,00 %
11.03.2022 04:40 6,7 C 6,1 C 2,2 C 59 % 1018,2 hPa 0,0 l/m 0 min 0 min 0 W/m 22,5 km/h (4 Bft) 100,00 %
11.03.2022 04:42 6,7 C 6,1 C 2,2 C 59 % 1018,1 hPa 0,0 l/m 0 min 0 min 0 W/m 19,3 km/h (3 Bft) 100,00 %
11.03.2022 04:44 6,7 C 6,1 C 2,2 C 59 % 1018,1 hPa 0,0 l/m 0 min 0 min 0 W/m 22,5 km/h (4 Bft) 100,00 %
11.03.2022 04:46 6,7 C 6,1 C 2,2 C 59 % 1018,1 hPa 0,0 l/m 0 min 0 min 0 W/m 22,5 km/h (4 Bft) 97,87 %
11.03.2022 04:48 6,7 C 5,6 C 2,2 C 59 % 1018,2 hPa 0,0 l/m 0 min 0 min 0 W/m 16,1 km/h (3 Bft) 100,00 %
11.03.2022 04:50 6,7 C 5,6 C 2,2 C 59 % 1018,1 hPa 0,0 l/m 0 min 0 min 0 W/m 16,1 km/h (3 Bft) 100,00 %
11.03.2022 04:52 6,7 C 5,6 C 2,2 C 59 % 1018,2 hPa 0,0 l/m 0 min 0 min 0 W/m 22,5 km/h (4 Bft) 100,00 %
11.03.2022 04:54 6,7 C 5,6 C 2,2 C 59 % 1018,1 hPa 0,0 l/m 0 min 0 min 0 W/m 16,1 km/h (3 Bft) 100,00 %
11.03.2022 04:56 6,6 C 5,6 C 2,2 C 59 % 1018,1 hPa 0,0 l/m 0 min 0 min 0 W/m 16,1 km/h (3 Bft) 100,00 %
11.03.2022 04:58 6,6 C 5,6 C 2,2 C 59 % 1018,1 hPa 0,0 l/m 0 min 0 min 0 W/m 25,7 km/h (4 Bft) 100,00 %
11.03.2022 05:00 6,6 C 5,6 C 2,2 C 59 % 1018,1 hPa 0,0 l/m 0 min 0 min 0 W/m 19,3 km/h (3 Bft) 100,00 %
11.03.2022 05:02 6,6 C 5,6 C 2,2 C 59 % 1018,2 hPa 0,0 l/m 0 min 0 min 0 W/m 22,5 km/h (4 Bft) 97,87 %
11.03.2022 05:04 6,6 C 5,6 C 2,2 C 60 % 1018,2 hPa 0,0 l/m 0 min 0 min 0 W/m 16,1 km/h (3 Bft) 100,00 %
11.03.2022 05:06 6,6 C 5,6 C 1,7 C 60 % 1018,2 hPa 0,0 l/m 0 min 0 min 0 W/m 12,9 km/h (3 Bft) 97,83 %
11.03.2022 05:08 6,6 C 5,6 C 1,7 C 60 % 1018,1 hPa 0,0 l/m 0 min 0 min 0 W/m 19,3 km/h (3 Bft) 97,87 %
11.03.2022 05:10 6,5 C 5,6 C 1,7 C 60 % 1018,2 hPa 0,0 l/m 0 min 0 min 0 W/m 16,1 km/h (3 Bft) 95,74 %
11.03.2022 05:12 6,5 C 5,6 C 1,7 C 60 % 1018,1 hPa 0,0 l/m 0 min 0 min 0 W/m 19,3 km/h (3 Bft) 97,87 %
11.03.2022 05:14 6,5 C 5,6 C 1,7 C 60 % 1018,1 hPa 0,0 l/m 0 min 0 min 0 W/m 19,3 km/h (3 Bft) 95,74 %
11.03.2022 05:16 6,5 C 5,6 C 1,7 C 60 % 1018,1 hPa 0,0 l/m 0 min 0 min 0 W/m 19,3 km/h (3 Bft) 95,74 %
11.03.2022 05:18 6,5 C 5,6 C 1,7 C 60 % 1018,1 hPa 0,0 l/m 0 min 0 min 0 W/m 19,3 km/h (3 Bft) 95,65 %
11.03.2022 05:20 6,5 C 5,6 C 1,7 C 60 % 1018,1 hPa 0,0 l/m 0 min 0 min 0 W/m 22,5 km/h (4 Bft) 95,74 %
11.03.2022 05:22 6,5 C 5,6 C 1,7 C 60 % 1018,1 hPa 0,0 l/m 0 min 0 min 0 W/m 25,7 km/h (4 Bft) 95,74 %
11.03.2022 05:24 6,5 C 5,6 C 1,7 C 60 % 1018,1 hPa 0,0 l/m 0 min 0 min 0 W/m 22,5 km/h (4 Bft) 95,74 %
11.03.2022 05:26 6,4 C 5,6 C 1,7 C 60 % 1018,1 hPa 0,0 l/m 0 min 0 min 0 W/m 25,7 km/h (4 Bft) 97,87 %
11.03.2022 05:28 6,4 C 5,6 C 1,7 C 60 % 1018,1 hPa 0,0 l/m 0 min 0 min 0 W/m 22,5 km/h (4 Bft) 97,87 %
11.03.2022 05:30 6,4 C 5,6 C 1,7 C 60 % 1018,1 hPa 0,0 l/m 0 min 0 min 0 W/m 16,1 km/h (3 Bft) 95,65 %
11.03.2022 05:32 6,4 C 5,6 C 1,7 C 60 % 1018,0 hPa 0,0 l/m 0 min 0 min 0 W/m 19,3 km/h (3 Bft) 100,00 %
11.03.2022 05:34 6,4 C 5,6 C 1,7 C 60 % 1018,1 hPa 0,0 l/m 0 min 0 min 0 W/m 25,7 km/h (4 Bft) 97,87 %
11.03.2022 05:36 6,3 C 5,6 C 1,7 C 61 % 1018,0 hPa 0,0 l/m 0 min 0 min 0 W/m 19,3 km/h (3 Bft) 100,00 %
11.03.2022 05:38 6,3 C 5,6 C 1,7 C 61 % 1018,0 hPa 0,0 l/m 0 min 0 min 0 W/m 22,5 km/h (4 Bft) 100,00 %
11.03.2022 05:40 6,3 C 5,6 C 1,7 C 61 % 1018,0 hPa 0,0 l/m 0 min 0 min 0 W/m 16,1 km/h (3 Bft) 100,00 %
11.03.2022 05:42 6,3 C 5,6 C 1,7 C 61 % 1018,0 hPa 0,0 l/m 0 min 0 min 0 W/m 25,7 km/h (4 Bft) 97,83 %
11.03.2022 05:44 6,3 C 5,6 C 1,7 C 61 % 1018,0 hPa 0,0 l/m 0 min 0 min 0 W/m 29,0 km/h (5 Bft) 95,74 %
11.03.2022 05:46 6,3 C 5,6 C 1,7 C 61 % 1018,0 hPa 0,0 l/m 0 min 0 min 0 W/m 22,5 km/h (4 Bft) 95,74 %
11.03.2022 05:48 6,3 C 5,6 C 1,7 C 61 % 1018,0 hPa 0,0 l/m 0 min 0 min 0 W/m 19,3 km/h (3 Bft) 97,87 %
11.03.2022 05:50 6,2 C 5,6 C 1,7 C 61 % 1018,0 hPa 0,0 l/m 0 min 0 min 0 W/m 35,4 km/h (5 Bft) 95,74 %
11.03.2022 05:52 6,2 C 5,6 C 1,7 C 61 % 1018,0 hPa 0,0 l/m 0 min 0 min 0 W/m 25,7 km/h (4 Bft) 97,87 %
11.03.2022 05:54 6,2 C 5,6 C 1,7 C 61 % 1018,1 hPa 0,0 l/m 0 min 0 min 0 W/m 12,9 km/h (3 Bft) 95,65 %
11.03.2022 05:56 6,2 C 5,6 C 1,7 C 61 % 1018,0 hPa 0,0 l/m 0 min 0 min 0 W/m 25,7 km/h (4 Bft) 97,87 %
11.03.2022 05:58 6,2 C 5,0 C 1,7 C 61 % 1018,0 hPa 0,0 l/m 0 min 0 min 0 W/m 19,3 km/h (3 Bft) 95,74 %
11.03.2022 06:00 6,1 C 5,0 C 1,7 C 61 % 1017,9 hPa 0,0 l/m 0 min 0 min 0 W/m 16,1 km/h (3 Bft) 97,87 %
11.03.2022 06:02 6,1 C 5,0 C 1,7 C 62 % 1018,0 hPa 0,0 l/m 0 min 0 min 0 W/m 16,1 km/h (3 Bft) 97,87 %
11.03.2022 06:04 6,1 C 5,0 C 1,7 C 62 % 1018,0 hPa 0,0 l/m 0 min 0 min 0 W/m 16,1 km/h (3 Bft) 95,74 %
11.03.2022 06:06 6,1 C 5,0 C 1,7 C 62 % 1018,0 hPa 0,0 l/m 0 min 0 min 0 W/m 16,1 km/h (3 Bft) 95,65 %
11.03.2022 06:08 6,1 C 5,0 C 1,7 C 62 % 1017,9 hPa 0,0 l/m 0 min 0 min 0 W/m 19,3 km/h (3 Bft) 95,74 %
11.03.2022 06:10 6,0 C 5,0 C 1,7 C 62 % 1018,0 hPa 0,0 l/m 0 min 0 min 0 W/m 19,3 km/h (3 Bft) 95,74 %
11.03.2022 06:12 6,0 C 5,0 C 1,7 C 62 % 1018,0 hPa 0,0 l/m 0 min 0 min 0 W/m 22,5 km/h (4 Bft) 95,74 %
11.03.2022 06:14 6,0 C 5,0 C 1,7 C 62 % 1017,9 hPa 0,0 l/m 0 min 0 min 0 W/m 19,3 km/h (3 Bft) 93,62 %
11.03.2022 06:16 6,0 C 5,0 C 1,7 C 61 % 1017,9 hPa 0,0 l/m 0 min 0 min 0 W/m 22,5 km/h (4 Bft) 93,62 %
11.03.2022 06:18 6,0 C 5,0 C 1,7 C 62 % 1018,0 hPa 0,0 l/m 0 min 0 min 0 W/m 29,0 km/h (5 Bft) 95,65 %
11.03.2022 06:20 6,0 C 5,0 C 1,7 C 61 % 1017,9 hPa 0,0 l/m 0 min 0 min 0 W/m 22,5 km/h (4 Bft) 95,74 %
11.03.2022 06:22 6,0 C 5,0 C 1,7 C 61 % 1018,0 hPa 0,0 l/m 0 min 0 min 0 W/m 22,5 km/h (4 Bft) 95,74 %
11.03.2022 06:24 5,9 C 5,0 C 1,7 C 61 % 1018,0 hPa 0,0 l/m 0 min 0 min 0 W/m 32,2 km/h (5 Bft) 95,74 %
11.03.2022 06:26 5,9 C 5,0 C 1,7 C 61 % 1018,0 hPa 0,0 l/m 0 min 0 min 0 W/m 19,3 km/h (3 Bft) 93,62 %
11.03.2022 06:28 5,9 C 5,0 C 1,1 C 62 % 1017,9 hPa 0,0 l/m 0 min 0 min 0 W/m 22,5 km/h (4 Bft) 95,74 %
11.03.2022 06:30 5,9 C 5,0 C 1,1 C 61 % 1018,0 hPa 0,0 l/m 0 min 0 min 0 W/m 22,5 km/h (4 Bft) 95,65 %
11.03.2022 06:32 5,9 C 5,0 C 1,1 C 62 % 1017,9 hPa 0,0 l/m 0 min 0 min 0 W/m 19,3 km/h (3 Bft) 95,74 %
11.03.2022 06:34 5,9 C 5,0 C 1,1 C 62 % 1017,9 hPa 0,0 l/m 0 min 0 min 0 W/m 19,3 km/h (3 Bft) 95,74 %
11.03.2022 06:36 5,9 C 5,0 C 1,1 C 62 % 1017,9 hPa 0,0 l/m 0 min 0 min 0 W/m 35,4 km/h (5 Bft) 97,87 %
11.03.2022 06:38 5,9 C 5,0 C 1,7 C 62 % 1017,9 hPa 0,0 l/m 0 min 0 min 0 W/m 25,7 km/h (4 Bft) 97,87 %
11.03.2022 06:40 5,9 C 5,0 C 1,7 C 61 % 1017,8 hPa 0,0 l/m 0 min 0 min 0 W/m 25,7 km/h (4 Bft) 97,87 %
11.03.2022 06:42 5,9 C 5,0 C 1,1 C 62 % 1017,9 hPa 0,0 l/m 0 min 0 min 0 W/m 19,3 km/h (3 Bft) 97,83 %
11.03.2022 06:44 5,8 C 5,0 C 1,1 C 62 % 1017,9 hPa 0,0 l/m 0 min 0 min 0 W/m 22,5 km/h (4 Bft) 97,87 %
11.03.2022 06:46 5,8 C 5,0 C 1,1 C 62 % 1017,8 hPa 0,0 l/m 0 min 0 min 0 W/m 22,5 km/h (4 Bft) 97,87 %
11.03.2022 06:48 5,8 C 5,0 C 1,1 C 62 % 1017,9 hPa 0,0 l/m 0 min 0 min 0 W/m 25,7 km/h (4 Bft) 100,00 %
11.03.2022 06:50 5,8 C 5,0 C 1,1 C 62 % 1017,9 hPa 0,0 l/m 0 min 0 min 0 W/m 19,3 km/h (3 Bft) 100,00 %
11.03.2022 06:52 5,8 C 5,0 C 1,1 C 62 % 1017,9 hPa 0,0 l/m 0 min 0 min 0 W/m 29,0 km/h (5 Bft) 98,31 %
11.03.2022 06:54 5,8 C 5,0 C 1,1 C 62 % 1017,8 hPa 0,0 l/m 0 min 0 min 0 W/m 19,3 km/h (3 Bft) 97,87 %
11.03.2022 06:56 5,8 C 5,0 C 1,1 C 62 % 1017,9 hPa 0,0 l/m 0 min 0 min 0 W/m 16,1 km/h (3 Bft) 97,83 %
11.03.2022 06:58 5,7 C 5,0 C 1,1 C 62 % 1017,8 hPa 0,0 l/m 0 min 0 min 4 W/m 22,5 km/h (4 Bft) 97,87 %
11.03.2022 07:00 5,7 C 5,0 C 1,1 C 62 % 1017,8 hPa 0,0 l/m 0 min 0 min 5 W/m 22,5 km/h (4 Bft) 97,87 %
11.03.2022 07:02 5,7 C 5,0 C 1,1 C 62 % 1017,7 hPa 0,0 l/m 0 min 0 min 6 W/m 35,4 km/h (5 Bft) 97,87 %
11.03.2022 07:04 5,7 C 5,0 C 1,1 C 62 % 1017,8 hPa 0,0 l/m 0 min 0 min 7 W/m 22,5 km/h (4 Bft) 97,87 %
11.03.2022 07:06 5,7 C 5,0 C 1,1 C 62 % 1017,8 hPa 0,0 l/m 0 min 0 min 9 W/m 19,3 km/h (3 Bft) 95,65 %
11.03.2022 07:08 5,7 C 5,0 C 1,1 C 63 % 1017,8 hPa 0,0 l/m 0 min 0 min 9 W/m 22,5 km/h (4 Bft) 95,74 %
11.03.2022 07:10 5,6 C 5,0 C 1,1 C 62 % 1017,8 hPa 0,0 l/m 0 min 0 min 11 W/m 25,7 km/h (4 Bft) 97,87 %
11.03.2022 07:12 5,6 C 5,0 C 1,1 C 62 % 1017,7 hPa 0,0 l/m 0 min 0 min 11 W/m 25,7 km/h (4 Bft) 93,62 %
11.03.2022 07:14 5,6 C 5,0 C 1,1 C 62 % 1017,7 hPa 0,0 l/m 0 min 0 min 12 W/m 22,5 km/h (4 Bft) 97,87 %
11.03.2022 07:16 5,6 C 5,0 C 1,1 C 63 % 1017,7 hPa 0,0 l/m 0 min 0 min 12 W/m 22,5 km/h (4 Bft) 100,00 %
11.03.2022 07:18 5,6 C 5,0 C 1,1 C 63 % 1017,7 hPa 0,0 l/m 0 min 0 min 14 W/m 35,4 km/h (5 Bft) 97,83 %
11.03.2022 07:20 5,6 C 5,0 C 1,1 C 63 % 1017,7 hPa 0,0 l/m 0 min 0 min 14 W/m 25,7 km/h (4 Bft) 97,87 %
11.03.2022 07:22 5,6 C 5,0 C 1,1 C 63 % 1017,7 hPa 0,0 l/m 0 min 0 min 16 W/m 25,7 km/h (4 Bft) 95,74 %
11.03.2022 07:24 5,6 C 5,0 C 1,1 C 63 % 1017,7 hPa 0,0 l/m 0 min 0 min 16 W/m 32,2 km/h (5 Bft) 97,87 %
11.03.2022 07:26 5,6 C 5,0 C 1,1 C 63 % 1017,7 hPa 0,0 l/m 0 min 0 min 18 W/m 32,2 km/h (5 Bft) 100,00 %
11.03.2022 07:28 5,6 C 5,0 C 1,1 C 63 % 1017,7 hPa 0,0 l/m 0 min 0 min 18 W/m 29,0 km/h (5 Bft) 100,00 %
11.03.2022 07:30 5,6 C 5,0 C 1,1 C 63 % 1017,7 hPa 0,0 l/m 0 min 0 min 19 W/m 25,7 km/h (4 Bft) 100,00 %
11.03.2022 07:32 5,6 C 5,0 C 1,1 C 63 % 1017,7 hPa 0,0 l/m 0 min 0 min 19 W/m 29,0 km/h (5 Bft) 100,00 %
11.03.2022 07:34 5,6 C 5,0 C 1,1 C 63 % 1017,7 hPa 0,0 l/m 0 min 0 min 21 W/m 29,0 km/h (5 Bft) 100,00 %
11.03.2022 07:36 5,6 C 5,0 C 1,1 C 63 % 1017,7 hPa 0,0 l/m 0 min 0 min 21 W/m 25,7 km/h (4 Bft) 100,00 %
11.03.2022 07:38 5,6 C 5,0 C 1,1 C 63 % 1017,7 hPa 0,0 l/m 0 min 0 min 23 W/m 29,0 km/h (5 Bft) 100,00 %
11.03.2022 07:40 5,6 C 5,0 C 1,1 C 63 % 1017,7 hPa 0,0 l/m 0 min 0 min 24 W/m 32,2 km/h (5 Bft) 100,00 %
11.03.2022 07:42 5,6 C 5,0 C 1,1 C 63 % 1017,6 hPa 0,0 l/m 0 min 0 min 25 W/m 22,5 km/h (4 Bft) 100,00 %
11.03.2022 07:44 5,6 C 5,0 C 1,1 C 64 % 1017,7 hPa 0,0 l/m 0 min 0 min 25 W/m 25,7 km/h (4 Bft) 100,00 %
11.03.2022 07:46 5,6 C 5,0 C 1,1 C 63 % 1017,6 hPa 0,0 l/m 0 min 0 min 26 W/m 35,4 km/h (5 Bft) 100,00 %
11.03.2022 07:48 5,6 C 5,0 C 1,1 C 63 % 1017,7 hPa 0,0 l/m 0 min 0 min 26 W/m 32,2 km/h (5 Bft) 97,83 %
11.03.2022 07:50 5,6 C 5,0 C 1,1 C 63 % 1017,6 hPa 0,0 l/m 0 min 0 min 28 W/m 22,5 km/h (4 Bft) 97,87 %
11.03.2022 07:52 5,6 C 5,0 C 1,1 C 63 % 1017,7 hPa 0,0 l/m 0 min 0 min 28 W/m 35,4 km/h (5 Bft) 100,00 %
11.03.2022 07:54 5,6 C 5,0 C 1,1 C 63 % 1017,7 hPa 0,0 l/m 0 min 0 min 30 W/m 25,7 km/h (4 Bft) 100,00 %
11.03.2022 07:56 5,6 C 5,0 C 1,1 C 63 % 1017,7 hPa 0,0 l/m 0 min 0 min 31 W/m 22,5 km/h (4 Bft) 100,00 %
11.03.2022 07:58 5,6 C 5,0 C 1,1 C 63 % 1017,7 hPa 0,0 l/m 0 min 0 min 32 W/m 22,5 km/h (4 Bft) 100,00 %
11.03.2022 08:00 5,6 C 5,0 C 1,1 C 63 % 1017,7 hPa 0,0 l/m 0 min 0 min 33 W/m 35,4 km/h (5 Bft) 100,00 %
11.03.2022 08:02 5,7 C 5,0 C 1,1 C 63 % 1017,7 hPa 0,0 l/m 0 min 0 min 34 W/m 38,6 km/h (5 Bft) 100,00 %
11.03.2022 08:04 5,7 C 5,0 C 1,1 C 63 % 1017,7 hPa 0,0 l/m 0 min 0 min 35 W/m 25,7 km/h (4 Bft) 100,00 %
11.03.2022 08:06 5,7 C 5,0 C 1,1 C 63 % 1017,8 hPa 0,0 l/m 0 min 0 min 37 W/m 32,2 km/h (5 Bft) 100,00 %
11.03.2022 08:08 5,7 C 5,0 C 1,1 C 63 % 1017,7 hPa 0,0 l/m 0 min 0 min 38 W/m 22,5 km/h (4 Bft) 100,00 %
11.03.2022 08:10 5,7 C 5,0 C 1,1 C 63 % 1017,8 hPa 0,0 l/m 0 min 0 min 39 W/m 32,2 km/h (5 Bft) 100,00 %
11.03.2022 08:12 5,7 C 5,0 C 1,1 C 63 % 1017,8 hPa 0,0 l/m 0 min 0 min 40 W/m 29,0 km/h (5 Bft) 95,65 %
11.03.2022 08:14 5,7 C 5,0 C 1,1 C 63 % 1017,8 hPa 0,0 l/m 0 min 0 min 40 W/m 22,5 km/h (4 Bft) 100,00 %
11.03.2022 08:16 5,7 C 5,0 C 1,1 C 63 % 1017,8 hPa 0,0 l/m 0 min 0 min 41 W/m 32,2 km/h (5 Bft) 100,00 %
11.03.2022 08:18 5,8 C 5,6 C 1,7 C 63 % 1017,7 hPa 0,0 l/m 0 min 0 min 42 W/m 22,5 km/h (4 Bft) 100,00 %
11.03.2022 08:20 5,8 C 5,6 C 1,7 C 63 % 1017,7 hPa 0,0 l/m 0 min 0 min 43 W/m 22,5 km/h (4 Bft) 97,87 %
11.03.2022 08:22 5,8 C 5,6 C 1,7 C 63 % 1017,7 hPa 0,0 l/m 0 min 0 min 44 W/m 32,2 km/h (5 Bft) 97,87 %
11.03.2022 08:24 5,8 C 5,6 C 1,7 C 64 % 1017,8 hPa 0,0 l/m 0 min 0 min 44 W/m 22,5 km/h (4 Bft) 100,00 %
11.03.2022 08:26 5,8 C 5,6 C 1,7 C 63 % 1017,8 hPa 0,0 l/m 0 min 0 min 46 W/m 35,4 km/h (5 Bft) 97,87 %
11.03.2022 08:28 5,8 C 5,6 C 1,7 C 63 % 1017,8 hPa 0,0 l/m 0 min 0 min 46 W/m 29,0 km/h (5 Bft) 100,00 %
11.03.2022 08:30 5,9 C 5,6 C 1,7 C 63 % 1017,8 hPa 0,0 l/m 0 min 0 min 47 W/m 25,7 km/h (4 Bft) 97,87 %
11.03.2022 08:32 5,9 C 5,6 C 1,7 C 63 % 1017,8 hPa 0,0 l/m 0 min 0 min 49 W/m 35,4 km/h (5 Bft) 97,87 %
11.03.2022 08:34 5,9 C 5,6 C 1,7 C 63 % 1017,8 hPa 0,0 l/m 0 min 0 min 49 W/m 29,0 km/h (5 Bft) 100,00 %
11.03.2022 08:36 6,0 C 5,6 C 1,7 C 63 % 1017,8 hPa 0,0 l/m 0 min 0 min 49 W/m 22,5 km/h (4 Bft) 60,87 %
11.03.2022 08:38 6,0 C 5,6 C 1,7 C 63 % 1017,7 hPa 0,0 l/m 0 min 0 min 51 W/m 32,2 km/h (5 Bft) 92,68 %
11.03.2022 08:40 6,1 C 5,6 C 1,7 C 63 % 1017,7 hPa 0,0 l/m 0 min 0 min 52 W/m 25,7 km/h (4 Bft) 97,87 %
11.03.2022 08:42 6,1 C 5,6 C 1,7 C 62 % 1017,7 hPa 0,0 l/m 0 min 0 min 53 W/m 35,4 km/h (5 Bft) 97,87 %
11.03.2022 08:44 6,1 C 5,6 C 1,7 C 62 % 1017,7 hPa 0,0 l/m 0 min 0 min 88 W/m 35,4 km/h (5 Bft) 95,74 %
11.03.2022 08:46 6,1 C 5,6 C 1,7 C 62 % 1017,7 hPa 0,0 l/m 2 min 0 min 193 W/m 41,8 km/h (6 Bft) 93,62 %
11.03.2022 08:48 6,2 C 5,6 C 1,7 C 62 % 1017,7 hPa 0,0 l/m 2 min 0 min 194 W/m 25,7 km/h (4 Bft) 93,48 %
11.03.2022 08:50 6,2 C 6,1 C 1,7 C 61 % 1017,6 hPa 0,0 l/m 2 min 0 min 159 W/m 38,6 km/h (5 Bft) 93,62 %
11.03.2022 08:52 6,3 C 6,7 C 1,7 C 62 % 1017,6 hPa 0,0 l/m 2 min 0 min 196 W/m 29,0 km/h (5 Bft) 93,62 %
11.03.2022 08:54 6,3 C 7,2 C 1,7 C 62 % 1017,7 hPa 0,0 l/m 2 min 0 min 258 W/m 29,0 km/h (5 Bft) 93,62 %
11.03.2022 08:56 6,4 C 7,8 C 2,2 C 62 % 1017,6 hPa 0,0 l/m 2 min 0 min 263 W/m 22,5 km/h (4 Bft) 91,49 %
11.03.2022 08:58 6,5 C 7,8 C 2,2 C 61 % 1017,6 hPa 0,0 l/m 2 min 0 min 270 W/m 32,2 km/h (5 Bft) 93,48 %
11.03.2022 09:00 6,6 C 7,8 C 2,2 C 61 % 1017,5 hPa 0,0 l/m 2 min 0 min 276 W/m 41,8 km/h (6 Bft) 93,62 %
11.03.2022 09:02 6,6 C 7,8 C 2,2 C 60 % 1017,6 hPa 0,0 l/m 2 min 0 min 281 W/m 35,4 km/h (5 Bft) 93,62 %
11.03.2022 09:04 6,7 C 7,8 C 2,2 C 60 % 1017,6 hPa 0,0 l/m 2 min 0 min 269 W/m 32,2 km/h (5 Bft) 93,62 %
11.03.2022 09:06 6,7 C 7,8 C 2,2 C 60 % 1017,6 hPa 0,0 l/m 2 min 0 min 257 W/m 41,8 km/h (6 Bft) 93,62 %
11.03.2022 09:08 6,8 C 7,2 C 2,2 C 60 % 1017,6 hPa 0,0 l/m 2 min 0 min 273 W/m 51,5 km/h (7 Bft) 93,62 %
11.03.2022 09:10 6,8 C 7,8 C 2,2 C 60 % 1017,8 hPa 0,0 l/m 2 min 0 min 250 W/m 32,2 km/h (5 Bft) 91,30 %
11.03.2022 09:12 6,8 C 7,2 C 2,2 C 59 % 1017,6 hPa 0,0 l/m 2 min 0 min 307 W/m 38,6 km/h (5 Bft) 91,49 %
11.03.2022 09:14 6,9 C 7,8 C 2,2 C 59 % 1017,6 hPa 0,0 l/m 2 min 0 min 320 W/m 35,4 km/h (5 Bft) 93,62 %
11.03.2022 09:16 6,9 C 7,2 C 2,2 C 59 % 1017,6 hPa 0,0 l/m 2 min 0 min 260 W/m 35,4 km/h (5 Bft) 91,49 %
11.03.2022 09:18 7,0 C 7,2 C 2,8 C 59 % 1017,6 hPa 0,0 l/m 2 min 0 min 230 W/m 32,2 km/h (5 Bft) 93,10 %
11.03.2022 09:20 7,1 C 7,2 C 2,8 C 59 % 1017,6 hPa 0,0 l/m 2 min 0 min 329 W/m 35,4 km/h (5 Bft) 93,62 %
11.03.2022 09:22 7,1 C 7,2 C 2,8 C 59 % 1017,5 hPa 0,0 l/m 2 min 0 min 339 W/m 35,4 km/h (5 Bft) 93,62 %
11.03.2022 09:24 7,1 C 7,8 C 2,8 C 59 % 1017,6 hPa 0,0 l/m 2 min 0 min 344 W/m 25,7 km/h (4 Bft) 95,74 %
11.03.2022 09:26 7,2 C 7,8 C 2,8 C 58 % 1017,5 hPa 0,0 l/m 2 min 0 min 329 W/m 32,2 km/h (5 Bft) 97,83 %
11.03.2022 09:28 7,2 C 7,8 C 2,8 C 58 % 1017,6 hPa 0,0 l/m 2 min 0 min 300 W/m 35,4 km/h (5 Bft) 97,87 %
11.03.2022 09:30 7,3 C 7,8 C 2,8 C 58 % 1017,5 hPa 0,0 l/m 2 min 0 min 271 W/m 29,0 km/h (5 Bft) 100,00 %
11.03.2022 09:32 7,3 C 8,3 C 2,8 C 58 % 1017,5 hPa 0,0 l/m 2 min 0 min 294 W/m 25,7 km/h (4 Bft) 97,87 %
11.03.2022 09:34 7,3 C 8,3 C 2,8 C 58 % 1017,5 hPa 0,0 l/m 2 min 0 min 360 W/m 38,6 km/h (5 Bft) 97,14 %
11.03.2022 09:36 7,4 C 8,3 C 2,8 C 58 % 1017,4 hPa 0,0 l/m 2 min 0 min 374 W/m 25,7 km/h (4 Bft) 97,87 %
11.03.2022 09:38 7,4 C 8,9 C 2,8 C 58 % 1017,4 hPa 0,0 l/m 2 min 0 min 195 W/m 29,0 km/h (5 Bft) 97,87 %
11.03.2022 09:40 7,4 C 8,3 C 2,8 C 58 % 1017,4 hPa 0,0 l/m 0 min 0 min 142 W/m 38,6 km/h (5 Bft) 97,87 %
11.03.2022 09:42 7,5 C 8,3 C 2,8 C 58 % 1017,4 hPa 0,0 l/m 2 min 0 min 229 W/m 25,7 km/h (4 Bft) 97,87 %
11.03.2022 09:44 7,6 C 8,3 C 3,3 C 58 % 1017,4 hPa 0,0 l/m 0 min 0 min 147 W/m 29,0 km/h (5 Bft) 97,87 %
11.03.2022 09:46 7,6 C 8,9 C 3,3 C 58 % 1017,4 hPa 0,0 l/m 2 min 0 min 263 W/m 32,2 km/h (5 Bft) 97,83 %
11.03.2022 09:48 7,7 C 8,9 C 3,3 C 57 % 1017,4 hPa 0,0 l/m 2 min 0 min 231 W/m 38,6 km/h (5 Bft) 95,74 %
11.03.2022 09:50 7,8 C 8,9 C 3,3 C 57 % 1017,4 hPa 0,0 l/m 0 min 0 min 121 W/m 32,2 km/h (5 Bft) 97,87 %
11.03.2022 09:52 7,8 C 8,9 C 3,3 C 57 % 1017,4 hPa 0,0 l/m 2 min 0 min 216 W/m 25,7 km/h (4 Bft) 97,87 %
11.03.2022 09:54 7,8 C 8,9 C 3,3 C 57 % 1017,4 hPa 0,0 l/m 0 min 0 min 158 W/m 22,5 km/h (4 Bft) 97,87 %
11.03.2022 09:56 7,9 C 8,9 C 3,3 C 57 % 1017,3 hPa 0,0 l/m 0 min 0 min 183 W/m 25,7 km/h (4 Bft) 95,65 %
11.03.2022 09:58 7,9 C 8,9 C 3,9 C 57 % 1017,3 hPa 0,0 l/m 2 min 0 min 292 W/m 19,3 km/h (3 Bft) 100,00 %
11.03.2022 10:00 8,1 C 8,9 C 3,9 C 57 % 1017,3 hPa 0,0 l/m 2 min 0 min 335 W/m 19,3 km/h (3 Bft) 97,87 %
11.03.2022 10:02 8,1 C 8,9 C 3,9 C 57 % 1017,2 hPa 0,0 l/m 2 min 0 min 310 W/m 25,7 km/h (4 Bft) 100,00 %
11.03.2022 10:04 8,2 C 8,9 C 4,4 C 57 % 1017,2 hPa 0,0 l/m 2 min 0 min 266 W/m 29,0 km/h (5 Bft) 100,00 %
11.03.2022 10:06 8,3 C 8,9 C 4,4 C 56 % 1017,2 hPa 0,0 l/m 2 min 0 min 263 W/m 29,0 km/h (5 Bft) 100,00 %
11.03.2022 10:08 8,3 C 9,4 C 4,4 C 56 % 1017,1 hPa 0,0 l/m 2 min 0 min 333 W/m 25,7 km/h (4 Bft) 100,00 %
11.03.2022 10:10 8,3 C 10,0 C 4,4 C 56 % 1017,2 hPa 0,0 l/m 2 min 0 min 307 W/m 25,7 km/h (4 Bft) 100,00 %
11.03.2022 10:12 8,4 C 10,0 C 4,4 C 55 % 1017,4 hPa 0,0 l/m 2 min 0 min 315 W/m 35,4 km/h (5 Bft) 100,00 %
11.03.2022 10:14 8,4 C 10,0 C 4,4 C 55 % 1017,2 hPa 0,0 l/m 2 min 0 min 294 W/m 32,2 km/h (5 Bft) 100,00 %
11.03.2022 10:16 8,4 C 10,0 C 4,4 C 55 % 1017,2 hPa 0,0 l/m 2 min 0 min 243 W/m 32,2 km/h (5 Bft) 97,87 %
11.03.2022 10:18 8,5 C 9,4 C 4,4 C 55 % 1017,1 hPa 0,0 l/m 2 min 0 min 316 W/m 38,6 km/h (5 Bft) 95,74 %
11.03.2022 10:20 8,5 C 10,0 C 4,4 C 55 % 1017,1 hPa 0,0 l/m 2 min 0 min 383 W/m 22,5 km/h (4 Bft) 100,00 %
11.03.2022 10:22 8,6 C 10,0 C 5,0 C 55 % 1017,1 hPa 0,0 l/m 2 min 0 min 337 W/m 22,5 km/h (4 Bft) 97,87 %
11.03.2022 10:24 8,6 C 10,6 C 5,0 C 55 % 1017,2 hPa 0,0 l/m 2 min 0 min 329 W/m 29,0 km/h (5 Bft) 100,00 %
11.03.2022 10:26 8,6 C 10,6 C 5,0 C 55 % 1017,2 hPa 0,0 l/m 2 min 0 min 285 W/m 29,0 km/h (5 Bft) 97,87 %
11.03.2022 10:28 8,7 C 10,6 C 5,0 C 55 % 1017,2 hPa 0,0 l/m 0 min 0 min 199 W/m 29,0 km/h (5 Bft) 97,87 %
11.03.2022 10:30 8,7 C 11,1 C 5,0 C 55 % 1017,1 hPa 0,0 l/m 2 min 0 min 252 W/m 32,2 km/h (5 Bft) 100,00 %
11.03.2022 10:32 8,8 C 11,7 C 5,6 C 55 % 1017,2 hPa 0,0 l/m 2 min 0 min 421 W/m 32,2 km/h (5 Bft) 100,00 %
11.03.2022 10:34 8,8 C 12,2 C 5,6 C 54 % 1017,2 hPa 0,0 l/m 2 min 0 min 387 W/m 25,7 km/h (4 Bft) 100,00 %
11.03.2022 10:36 8,9 C 12,2 C 5,6 C 54 % 1017,1 hPa 0,0 l/m 2 min 0 min 485 W/m 25,7 km/h (4 Bft) 100,00 %
11.03.2022 10:38 9,0 C 12,2 C 6,7 C 54 % 1017,1 hPa 0,0 l/m 2 min 0 min 505 W/m 25,7 km/h (4 Bft) 100,00 %
11.03.2022 10:40 9,1 C 12,8 C 7,2 C 54 % 1017,1 hPa 0,0 l/m 2 min 0 min 511 W/m 22,5 km/h (4 Bft) 100,00 %
11.03.2022 10:42 9,2 C 12,2 C 7,2 C 54 % 1017,0 hPa 0,0 l/m 2 min 0 min 484 W/m 35,4 km/h (5 Bft) 100,00 %
11.03.2022 10:44 9,2 C 12,2 C 7,8 C 54 % 1017,1 hPa 0,0 l/m 2 min 0 min 518 W/m 19,3 km/h (3 Bft) 100,00 %
11.03.2022 10:46 9,3 C 12,2 C 8,3 C 53 % 1017,0 hPa 0,0 l/m 2 min 0 min 533 W/m 25,7 km/h (4 Bft) 100,00 %
11.03.2022 10:48 9,3 C 12,2 C 8,9 C 53 % 1017,0 hPa 0,0 l/m 2 min 0 min 537 W/m 29,0 km/h (5 Bft) 100,00 %
11.03.2022 10:50 9,4 C 12,8 C 8,9 C 53 % 1017,0 hPa 0,0 l/m 2 min 0 min 529 W/m 32,2 km/h (5 Bft) 100,00 %
11.03.2022 10:52 9,4 C 12,8 C 8,9 C 53 % 1017,0 hPa 0,0 l/m 2 min 0 min 531 W/m 29,0 km/h (5 Bft) 95,74 %
11.03.2022 10:54 9,5 C 13,3 C 9,4 C 53 % 1017,0 hPa 0,0 l/m 2 min 0 min 541 W/m 41,8 km/h (6 Bft) 97,87 %
11.03.2022 10:56 9,5 C 13,3 C 9,4 C 53 % 1016,9 hPa 0,0 l/m 2 min 0 min 545 W/m 29,0 km/h (5 Bft) 95,65 %
11.03.2022 10:58 9,6 C 13,9 C 10,0 C 54 % 1016,9 hPa 0,0 l/m 2 min 0 min 555 W/m 25,7 km/h (4 Bft) 97,87 %
11.03.2022 11:00 9,7 C 14,4 C 10,0 C 53 % 1016,9 hPa 0,0 l/m 2 min 0 min 560 W/m 35,4 km/h (5 Bft) 97,87 %
11.03.2022 11:02 9,8 C 14,4 C 10,6 C 53 % 1016,9 hPa 0,0 l/m 2 min 0 min 563 W/m 25,7 km/h (4 Bft) 97,87 %
11.03.2022 11:04 9,9 C 14,4 C 10,6 C 52 % 1016,9 hPa 0,0 l/m 2 min 0 min 565 W/m 35,4 km/h (5 Bft) 97,87 %
11.03.2022 11:06 10,0 C 13,9 C 10,6 C 52 % 1017,0 hPa 0,0 l/m 2 min 0 min 567 W/m 22,5 km/h (4 Bft) 97,87 %
11.03.2022 11:08 10,1 C 14,4 C 10,6 C 52 % 1016,9 hPa 0,0 l/m 2 min 0 min 569 W/m 32,2 km/h (5 Bft) 100,00 %
11.03.2022 11:10 10,1 C 13,9 C 10,6 C 52 % 1016,9 hPa 0,0 l/m 2 min 0 min 573 W/m 32,2 km/h (5 Bft) 97,87 %
11.03.2022 11:12 10,2 C 13,9 C 10,6 C 52 % 1017,0 hPa 0,0 l/m 2 min 0 min 577 W/m 29,0 km/h (5 Bft) 97,87 %
11.03.2022 11:14 10,2 C 13,9 C 10,6 C 51 % 1016,9 hPa 0,0 l/m 2 min 0 min 580 W/m 45,1 km/h (6 Bft) 97,87 %
11.03.2022 11:16 10,2 C 14,4 C 11,1 C 51 % 1016,9 hPa 0,0 l/m 2 min 0 min 581 W/m 32,2 km/h (5 Bft) 100,00 %
11.03.2022 11:18 10,3 C 14,4 C 10,6 C 51 % 1016,9 hPa 0,0 l/m 2 min 0 min 580 W/m 25,7 km/h (4 Bft) 97,87 %
11.03.2022 11:20 10,3 C 14,4 C 11,1 C 52 % 1016,9 hPa 0,0 l/m 2 min 0 min 593 W/m 29,0 km/h (5 Bft) 100,00 %
11.03.2022 11:22 10,3 C 14,4 C 11,1 C 51 % 1016,9 hPa 0,0 l/m 2 min 0 min 592 W/m 25,7 km/h (4 Bft) 97,87 %
11.03.2022 11:24 10,4 C 15,0 C 11,1 C 51 % 1016,8 hPa 0,0 l/m 2 min 0 min 597 W/m 22,5 km/h (4 Bft) 100,00 %
11.03.2022 11:26 10,4 C 15,0 C 11,7 C 52 % 1016,8 hPa 0,0 l/m 2 min 0 min 576 W/m 22,5 km/h (4 Bft) 95,74 %
11.03.2022 11:28 10,5 C 15,6 C 11,7 C 52 % 1016,8 hPa 0,0 l/m 2 min 0 min 534 W/m 22,5 km/h (4 Bft) 96,36 %
11.03.2022 11:30 10,6 C 15,0 C 11,7 C 51 % 1016,8 hPa 0,0 l/m 2 min 0 min 552 W/m 22,5 km/h (4 Bft) 97,87 %
11.03.2022 11:32 10,7 C 15,0 C 11,7 C 52 % 1016,8 hPa 0,0 l/m 2 min 0 min 605 W/m 38,6 km/h (5 Bft) 95,74 %
11.03.2022 11:34 10,7 C 15,6 C 12,2 C 51 % 1016,8 hPa 0,0 l/m 2 min 0 min 607 W/m 22,5 km/h (4 Bft) 100,00 %
11.03.2022 11:36 10,8 C 15,6 C 12,2 C 51 % 1016,7 hPa 0,0 l/m 2 min 0 min 580 W/m 29,0 km/h (5 Bft) 97,87 %
11.03.2022 11:38 10,8 C 15,0 C 11,7 C 51 % 1016,6 hPa 0,0 l/m 2 min 0 min 611 W/m 29,0 km/h (5 Bft) 97,87 %
11.03.2022 11:40 10,9 C 15,0 C 11,7 C 51 % 1016,7 hPa 0,0 l/m 2 min 0 min 607 W/m 22,5 km/h (4 Bft) 95,74 %
11.03.2022 11:42 10,9 C 15,6 C 11,1 C 50 % 1016,7 hPa 0,0 l/m 2 min 0 min 609 W/m 35,4 km/h (5 Bft) 97,87 %
11.03.2022 11:44 10,9 C 15,0 C 10,6 C 51 % 1016,7 hPa 0,0 l/m 2 min 0 min 613 W/m 35,4 km/h (5 Bft) 97,87 %
11.03.2022 11:46 10,9 C 15,6 C 10,6 C 51 % 1016,6 hPa 0,0 l/m 2 min 0 min 618 W/m 25,7 km/h (4 Bft) 95,65 %
11.03.2022 11:48 11,0 C 15,0 C 10,0 C 51 % 1016,5 hPa 0,0 l/m 2 min 0 min 616 W/m 25,7 km/h (4 Bft) 95,74 %
11.03.2022 11:50 11,1 C 15,0 C 10,6 C 50 % 1016,5 hPa 0,0 l/m 2 min 0 min 610 W/m 25,7 km/h (4 Bft) 97,87 %
11.03.2022 11:52 11,1 C 14,4 C 10,0 C 50 % 1016,6 hPa 0,0 l/m 2 min 0 min 579 W/m 29,0 km/h (5 Bft) 97,87 %
11.03.2022 11:54 11,1 C 13,9 C 9,4 C 50 % 1016,5 hPa 0,0 l/m 2 min 0 min 573 W/m 35,4 km/h (5 Bft) 97,87 %
11.03.2022 11:56 11,1 C 13,9 C 10,0 C 50 % 1016,5 hPa 0,0 l/m 2 min 0 min 596 W/m 32,2 km/h (5 Bft) 97,87 %
11.03.2022 11:58 11,1 C 14,4 C 10,0 C 50 % 1016,6 hPa 0,0 l/m 2 min 0 min 552 W/m 41,8 km/h (6 Bft) 97,83 %
11.03.2022 12:00 11,1 C 13,9 C 10,0 C 50 % 1016,6 hPa 0,0 l/m 2 min 0 min 528 W/m 25,7 km/h (4 Bft) 97,87 %
11.03.2022 12:02 11,2 C 13,9 C 10,0 C 51 % 1016,6 hPa 0,0 l/m 2 min 0 min 568 W/m 19,3 km/h (3 Bft) 95,74 %
11.03.2022 12:04 11,3 C 13,9 C 10,0 C 51 % 1016,5 hPa 0,0 l/m 2 min 0 min 501 W/m 22,5 km/h (4 Bft) 95,74 %
11.03.2022 12:08 11,4 C 13,3 C 10,0 C 50 % 1016,5 hPa 0,0 l/m 4 min 0 min 329 W/m 25,7 km/h (4 Bft) 97,87 %
11.03.2022 12:10 11,4 C 12,8 C 10,0 C 50 % 1016,5 hPa 0,0 l/m 2 min 0 min 482 W/m 25,7 km/h (4 Bft) 97,83 %
11.03.2022 12:12 11,6 C 12,8 C 9,4 C 50 % 1016,4 hPa 0,0 l/m 2 min 0 min 352 W/m 41,8 km/h (6 Bft) 97,87 %
11.03.2022 12:14 11,6 C 12,2 C 9,4 C 50 % 1016,4 hPa 0,0 l/m 2 min 0 min 340 W/m 35,4 km/h (5 Bft) 97,87 %
11.03.2022 12:16 11,6 C 12,2 C 8,9 C 50 % 1016,4 hPa 0,0 l/m 2 min 0 min 290 W/m 19,3 km/h (3 Bft) 97,87 %
11.03.2022 12:18 11,7 C 12,8 C 9,4 C 50 % 1016,4 hPa 0,0 l/m 2 min 0 min 323 W/m 35,4 km/h (5 Bft) 100,00 %
11.03.2022 12:20 11,7 C 12,8 C 9,4 C 50 % 1016,3 hPa 0,0 l/m 2 min 0 min 488 W/m 29,0 km/h (5 Bft) 100,00 %
11.03.2022 12:22 11,8 C 12,8 C 10,0 C 50 % 1016,3 hPa 0,0 l/m 2 min 0 min 470 W/m 25,7 km/h (4 Bft) 100,00 %
11.03.2022 12:24 11,8 C 12,2 C 9,4 C 49 % 1016,3 hPa 0,0 l/m 2 min 0 min 361 W/m 25,7 km/h (4 Bft) 97,87 %
11.03.2022 12:26 11,8 C 12,8 C 10,0 C 49 % 1016,3 hPa 0,0 l/m 2 min 0 min 431 W/m 32,2 km/h (5 Bft) 97,87 %
11.03.2022 12:28 11,7 C 12,8 C 9,4 C 49 % 1016,2 hPa 0,0 l/m 2 min 0 min 546 W/m 29,0 km/h (5 Bft) 100,00 %
11.03.2022 12:30 11,7 C 12,8 C 9,4 C 49 % 1016,2 hPa 0,0 l/m 2 min 0 min 596 W/m 22,5 km/h (4 Bft) 100,00 %
11.03.2022 12:32 11,8 C 13,3 C 9,4 C 50 % 1016,2 hPa 0,0 l/m 2 min 0 min 628 W/m 22,5 km/h (4 Bft) 100,00 %
11.03.2022 12:34 11,8 C 13,3 C 9,4 C 50 % 1016,1 hPa 0,0 l/m 2 min 0 min 620 W/m 22,5 km/h (4 Bft) 97,83 %
11.03.2022 12:36 11,9 C 13,9 C 9,4 C 49 % 1016,2 hPa 0,0 l/m 2 min 0 min 635 W/m 29,0 km/h (5 Bft) 95,74 %
11.03.2022 12:38 11,9 C 13,3 C 8,9 C 49 % 1016,1 hPa 0,0 l/m 2 min 0 min 631 W/m 25,7 km/h (4 Bft) 97,87 %
11.03.2022 12:40 11,9 C 13,3 C 8,9 C 49 % 1016,1 hPa 0,0 l/m 2 min 0 min 634 W/m 32,2 km/h (5 Bft) 97,87 %
11.03.2022 12:42 11,9 C 13,3 C 8,3 C 49 % 1015,9 hPa 0,0 l/m 2 min 0 min 632 W/m 32,2 km/h (5 Bft) 95,74 %
11.03.2022 12:44 11,9 C 14,4 C 8,3 C 49 % 1015,9 hPa 0,0 l/m 2 min 0 min 630 W/m 32,2 km/h (5 Bft) 97,83 %
11.03.2022 12:46 11,9 C 14,4 C 8,3 C 49 % 1015,8 hPa 0,0 l/m 2 min 0 min 629 W/m 35,4 km/h (5 Bft) 97,87 %
11.03.2022 12:48 11,9 C 15,0 C 8,3 C 50 % 1015,7 hPa 0,0 l/m 2 min 0 min 631 W/m 25,7 km/h (4 Bft) 97,87 %
11.03.2022 12:50 12,0 C 15,6 C 8,3 C 50 % 1015,7 hPa 0,0 l/m 2 min 0 min 632 W/m 25,7 km/h (4 Bft) 97,87 %
11.03.2022 12:52 12,1 C 15,6 C 8,3 C 49 % 1015,7 hPa 0,0 l/m 2 min 0 min 631 W/m 35,4 km/h (5 Bft) 97,87 %
11.03.2022 12:54 12,1 C 15,6 C 8,3 C 49 % 1015,7 hPa 0,0 l/m 2 min 0 min 630 W/m 41,8 km/h (6 Bft) 97,87 %
11.03.2022 12:56 12,1 C 16,1 C 7,8 C 49 % 1015,7 hPa 0,0 l/m 2 min 0 min 630 W/m 32,2 km/h (5 Bft) 97,83 %
11.03.2022 12:58 12,1 C 16,1 C 7,8 C 49 % 1015,6 hPa 0,0 l/m 2 min 0 min 630 W/m 41,8 km/h (6 Bft) 97,87 %
11.03.2022 13:00 12,1 C 16,1 C 7,8 C 49 % 1015,6 hPa 0,0 l/m 2 min 0 min 631 W/m 25,7 km/h (4 Bft) 97,87 %
11.03.2022 13:02 12,1 C 16,7 C 8,3 C 49 % 1015,5 hPa 0,0 l/m 2 min 0 min 631 W/m 22,5 km/h (4 Bft) 97,87 %
11.03.2022 13:04 12,2 C 17,2 C 8,3 C 49 % 1015,5 hPa 0,0 l/m 2 min 0 min 631 W/m 32,2 km/h (5 Bft) 97,87 %
11.03.2022 13:06 12,2 C 17,2 C 8,3 C 49 % 1015,5 hPa 0,0 l/m 2 min 0 min 630 W/m 25,7 km/h (4 Bft) 97,87 %
11.03.2022 13:08 12,3 C 17,8 C 8,3 C 49 % 1015,5 hPa 0,0 l/m 2 min 0 min 632 W/m 19,3 km/h (3 Bft) 97,83 %
11.03.2022 13:10 12,4 C 17,8 C 8,3 C 49 % 1015,5 hPa 0,0 l/m 2 min 0 min 629 W/m 22,5 km/h (4 Bft) 100,00 %
11.03.2022 13:12 12,4 C 17,8 C 8,3 C 49 % 1015,5 hPa 0,0 l/m 2 min 0 min 630 W/m 35,4 km/h (5 Bft) 100,00 %
11.03.2022 13:14 12,6 C 18,3 C 8,9 C 49 % 1015,4 hPa 0,0 l/m 2 min 0 min 629 W/m 25,7 km/h (4 Bft) 100,00 %
11.03.2022 13:16 12,7 C 17,2 C 8,3 C 48 % 1015,4 hPa 0,0 l/m 2 min 0 min 629 W/m 45,1 km/h (6 Bft) 100,00 %
11.03.2022 13:18 12,7 C 17,8 C 8,3 C 49 % 1015,3 hPa 0,0 l/m 2 min 0 min 627 W/m 25,7 km/h (4 Bft) 100,00 %
11.03.2022 13:20 12,7 C 17,8 C 8,3 C 49 % 1015,3 hPa 0,0 l/m 2 min 0 min 627 W/m 29,0 km/h (5 Bft) 100,00 %
11.03.2022 13:22 12,8 C 17,8 C 8,9 C 49 % 1015,3 hPa 0,0 l/m 2 min 0 min 626 W/m 29,0 km/h (5 Bft) 100,00 %
11.03.2022 13:24 12,9 C 18,3 C 8,9 C 49 % 1015,2 hPa 0,0 l/m 2 min 0 min 622 W/m 25,7 km/h (4 Bft) 100,00 %
11.03.2022 13:26 12,9 C 18,3 C 8,9 C 49 % 1015,2 hPa 0,0 l/m 2 min 0 min 622 W/m 35,4 km/h (5 Bft) 100,00 %
11.03.2022 13:28 13,1 C 18,3 C 8,9 C 49 % 1015,2 hPa 0,0 l/m 2 min 0 min 621 W/m 25,7 km/h (4 Bft) 100,00 %
11.03.2022 13:30 13,1 C 18,3 C 8,9 C 49 % 1015,1 hPa 0,0 l/m 2 min 0 min 620 W/m 29,0 km/h (5 Bft) 97,87 %
11.03.2022 13:32 13,1 C 17,8 C 8,9 C 48 % 1015,1 hPa 0,0 l/m 2 min 0 min 619 W/m 29,0 km/h (5 Bft) 100,00 %
11.03.2022 13:34 13,1 C 17,8 C 8,9 C 48 % 1015,1 hPa 0,0 l/m 2 min 0 min 619 W/m 29,0 km/h (5 Bft) 100,00 %
11.03.2022 13:36 13,2 C 18,3 C 8,9 C 48 % 1015,2 hPa 0,0 l/m 2 min 0 min 617 W/m 22,5 km/h (4 Bft) 97,87 %
11.03.2022 13:38 13,2 C 18,3 C 8,9 C 48 % 1015,0 hPa 0,0 l/m 2 min 0 min 616 W/m 22,5 km/h (4 Bft) 95,74 %
11.03.2022 13:40 13,2 C 17,8 C 8,9 C 48 % 1015,0 hPa 0,0 l/m 2 min 0 min 612 W/m 38,6 km/h (5 Bft) 100,00 %
11.03.2022 13:42 13,3 C 18,3 C 8,9 C 48 % 1015,0 hPa 0,0 l/m 2 min 0 min 610 W/m 19,3 km/h (3 Bft) 100,00 %
11.03.2022 13:44 13,3 C 19,4 C 8,9 C 48 % 1015,0 hPa 0,0 l/m 2 min 0 min 607 W/m 22,5 km/h (4 Bft) 97,83 %
11.03.2022 13:46 13,4 C 18,9 C 9,4 C 48 % 1014,9 hPa 0,0 l/m 2 min 0 min 604 W/m 22,5 km/h (4 Bft) 100,00 %
11.03.2022 13:48 13,6 C 18,3 C 9,4 C 47 % 1015,0 hPa 0,0 l/m 2 min 0 min 602 W/m 38,6 km/h (5 Bft) 97,87 %
11.03.2022 13:50 13,6 C 17,8 C 8,9 C 47 % 1014,9 hPa 0,0 l/m 2 min 0 min 599 W/m 25,7 km/h (4 Bft) 97,87 %
11.03.2022 13:52 13,6 C 18,3 C 8,9 C 47 % 1014,9 hPa 0,0 l/m 2 min 0 min 598 W/m 25,7 km/h (4 Bft) 97,87 %
11.03.2022 13:54 13,6 C 18,3 C 9,4 C 48 % 1014,9 hPa 0,0 l/m 2 min 0 min 598 W/m 32,2 km/h (5 Bft) 97,87 %
11.03.2022 13:56 13,6 C 18,3 C 8,9 C 48 % 1014,8 hPa 0,0 l/m 2 min 0 min 595 W/m 32,2 km/h (5 Bft) 97,83 %
11.03.2022 13:58 13,6 C 18,3 C 8,9 C 48 % 1014,6 hPa 0,0 l/m 2 min 0 min 591 W/m 29,0 km/h (5 Bft) 97,87 %
11.03.2022 14:00 13,6 C 17,8 C 8,9 C 47 % 1014,7 hPa 0,0 l/m 2 min 0 min 591 W/m 29,0 km/h (5 Bft) 97,87 %
11.03.2022 14:02 13,6 C 17,8 C 8,9 C 47 % 1014,6 hPa 0,0 l/m 2 min 0 min 589 W/m 29,0 km/h (5 Bft) 95,74 %
11.03.2022 14:04 13,7 C 17,8 C 8,9 C 47 % 1014,6 hPa 0,0 l/m 2 min 0 min 590 W/m 29,0 km/h (5 Bft) 97,87 %
11.03.2022 14:06 13,7 C 17,2 C 9,4 C 47 % 1014,6 hPa 0,0 l/m 2 min 0 min 589 W/m 25,7 km/h (4 Bft) 100,00 %
11.03.2022 14:08 13,7 C 17,2 C 9,4 C 47 % 1014,5 hPa 0,0 l/m 2 min 0 min 585 W/m 25,7 km/h (4 Bft) 97,83 %
11.03.2022 14:10 13,8 C 17,8 C 9,4 C 47 % 1014,5 hPa 0,0 l/m 2 min 0 min 582 W/m 22,5 km/h (4 Bft) 97,87 %
11.03.2022 14:12 13,8 C 17,8 C 9,4 C 47 % 1014,6 hPa 0,0 l/m 2 min 0 min 578 W/m 25,7 km/h (4 Bft) 97,87 %
11.03.2022 14:14 13,9 C 17,8 C 9,4 C 47 % 1014,5 hPa 0,0 l/m 2 min 0 min 564 W/m 25,7 km/h (4 Bft) 97,87 %
11.03.2022 14:16 13,9 C 17,8 C 9,4 C 47 % 1014,4 hPa 0,0 l/m 2 min 0 min 572 W/m 25,7 km/h (4 Bft) 97,87 %
11.03.2022 14:18 14,0 C 17,8 C 9,4 C 47 % 1014,3 hPa 0,0 l/m 2 min 0 min 571 W/m 29,0 km/h (5 Bft) 97,87 %
11.03.2022 14:20 14,1 C 17,2 C 9,4 C 47 % 1014,4 hPa 0,0 l/m 2 min 0 min 567 W/m 25,7 km/h (4 Bft) 95,65 %
11.03.2022 14:22 14,1 C 17,8 C 9,4 C 47 % 1014,4 hPa 0,0 l/m 2 min 0 min 566 W/m 22,5 km/h (4 Bft) 93,62 %
11.03.2022 14:24 14,3 C 17,2 C 9,4 C 47 % 1014,3 hPa 0,0 l/m 2 min 0 min 551 W/m 25,7 km/h (4 Bft) 95,74 %
11.03.2022 14:26 14,3 C 17,8 C 9,4 C 47 % 1014,3 hPa 0,0 l/m 2 min 0 min 556 W/m 35,4 km/h (5 Bft) 93,62 %
11.03.2022 14:28 14,3 C 17,8 C 9,4 C 47 % 1014,2 hPa 0,0 l/m 2 min 0 min 559 W/m 32,2 km/h (5 Bft) 95,74 %
11.03.2022 14:30 14,3 C 17,8 C 9,4 C 47 % 1014,2 hPa 0,0 l/m 2 min 0 min 555 W/m 25,7 km/h (4 Bft) 95,74 %
11.03.2022 14:32 14,3 C 17,8 C 9,4 C 47 % 1014,1 hPa 0,0 l/m 2 min 0 min 553 W/m 22,5 km/h (4 Bft) 95,65 %
11.03.2022 14:34 14,3 C 18,3 C 10,0 C 47 % 1014,2 hPa 0,0 l/m 2 min 0 min 549 W/m 22,5 km/h (4 Bft) 93,62 %
11.03.2022 14:36 14,3 C 18,3 C 10,0 C 47 % 1014,1 hPa 0,0 l/m 2 min 0 min 545 W/m 29,0 km/h (5 Bft) 93,62 %
11.03.2022 14:38 14,4 C 18,3 C 10,0 C 47 % 1014,0 hPa 0,0 l/m 2 min 0 min 542 W/m 35,4 km/h (5 Bft) 93,62 %
11.03.2022 14:40 14,4 C 18,3 C 10,0 C 47 % 1014,0 hPa 0,0 l/m 2 min 0 min 538 W/m 29,0 km/h (5 Bft) 95,74 %
11.03.2022 14:42 14,4 C 18,3 C 10,0 C 47 % 1014,0 hPa 0,0 l/m 2 min 0 min 533 W/m 29,0 km/h (5 Bft) 97,87 %
11.03.2022 14:44 14,4 C 18,3 C 10,0 C 47 % 1014,0 hPa 0,0 l/m 2 min 0 min 531 W/m 35,4 km/h (5 Bft) 97,83 %
11.03.2022 14:46 14,4 C 17,8 C 10,0 C 47 % 1013,9 hPa 0,0 l/m 2 min 0 min 527 W/m 48,3 km/h (6 Bft) 97,87 %
11.03.2022 14:48 14,4 C 17,8 C 10,0 C 47 % 1014,0 hPa 0,0 l/m 2 min 0 min 524 W/m 25,7 km/h (4 Bft) 95,74 %
11.03.2022 14:50 14,4 C 16,7 C 10,0 C 47 % 1014,0 hPa 0,0 l/m 2 min 0 min 521 W/m 29,0 km/h (5 Bft) 95,74 %
11.03.2022 14:52 14,5 C 16,7 C 10,0 C 47 % 1014,0 hPa 0,0 l/m 2 min 0 min 516 W/m 25,7 km/h (4 Bft) 95,74 %
11.03.2022 14:54 14,5 C 17,2 C 10,0 C 47 % 1014,0 hPa 0,0 l/m 2 min 0 min 510 W/m 29,0 km/h (5 Bft) 93,62 %
11.03.2022 14:56 14,5 C 17,8 C 10,0 C 47 % 1014,0 hPa 0,0 l/m 2 min 0 min 509 W/m 19,3 km/h (3 Bft) 95,65 %
11.03.2022 14:58 14,6 C 17,2 C 10,0 C 46 % 1014,0 hPa 0,0 l/m 2 min 0 min 502 W/m 41,8 km/h (6 Bft) 93,62 %
11.03.2022 15:00 14,6 C 17,8 C 10,0 C 47 % 1013,9 hPa 0,0 l/m 2 min 0 min 496 W/m 25,7 km/h (4 Bft) 95,74 %
11.03.2022 15:02 14,6 C 17,8 C 10,0 C 46 % 1013,9 hPa 0,0 l/m 2 min 0 min 488 W/m 32,2 km/h (5 Bft) 95,74 %
11.03.2022 15:04 14,6 C 17,8 C 10,0 C 46 % 1013,9 hPa 0,0 l/m 2 min 0 min 478 W/m 29,0 km/h (5 Bft) 95,74 %
11.03.2022 15:06 14,6 C 17,8 C 10,0 C 46 % 1013,9 hPa 0,0 l/m 2 min 0 min 485 W/m 38,6 km/h (5 Bft) 97,87 %
11.03.2022 15:08 14,6 C 17,2 C 10,0 C 46 % 1014,0 hPa 0,0 l/m 2 min 0 min 477 W/m 29,0 km/h (5 Bft) 97,83 %
11.03.2022 15:10 14,6 C 16,7 C 10,0 C 46 % 1014,0 hPa 0,0 l/m 2 min 0 min 477 W/m 25,7 km/h (4 Bft) 97,87 %
11.03.2022 15:12 14,5 C 16,1 C 10,0 C 47 % 1013,9 hPa 0,0 l/m 2 min 0 min 479 W/m 25,7 km/h (4 Bft) 97,87 %
11.03.2022 15:14 14,5 C 16,7 C 10,0 C 46 % 1013,9 hPa 0,0 l/m 2 min 0 min 475 W/m 29,0 km/h (5 Bft) 95,74 %
11.03.2022 15:16 14,6 C 16,7 C 10,0 C 46 % 1013,9 hPa 0,0 l/m 2 min 0 min 470 W/m 25,7 km/h (4 Bft) 97,87 %
11.03.2022 15:18 14,6 C 16,7 C 10,0 C 46 % 1013,8 hPa 0,0 l/m 2 min 0 min 467 W/m 29,0 km/h (5 Bft) 97,87 %
11.03.2022 15:20 14,6 C 17,2 C 10,0 C 47 % 1013,9 hPa 0,0 l/m 2 min 0 min 462 W/m 25,7 km/h (4 Bft) 97,83 %
11.03.2022 15:22 14,7 C 17,8 C 10,0 C 46 % 1013,9 hPa 0,0 l/m 2 min 0 min 458 W/m 35,4 km/h (5 Bft) 97,87 %
11.03.2022 15:24 14,7 C 17,8 C 10,0 C 46 % 1013,9 hPa 0,0 l/m 2 min 0 min 453 W/m 29,0 km/h (5 Bft) 95,74 %
11.03.2022 15:26 14,7 C 17,8 C 10,0 C 46 % 1013,9 hPa 0,0 l/m 2 min 0 min 448 W/m 41,8 km/h (6 Bft) 97,87 %
11.03.2022 15:28 14,6 C 17,8 C 10,0 C 46 % 1013,9 hPa 0,0 l/m 2 min 0 min 442 W/m 22,5 km/h (4 Bft) 97,87 %
11.03.2022 15:30 14,6 C 17,8 C 10,0 C 46 % 1013,8 hPa 0,0 l/m 2 min 0 min 437 W/m 29,0 km/h (5 Bft) 97,83 %
11.03.2022 15:32 14,6 C 17,8 C 10,0 C 45 % 1014,0 hPa 0,0 l/m 2 min 0 min 431 W/m 35,4 km/h (5 Bft) 97,87 %
11.03.2022 15:34 14,6 C 17,8 C 10,0 C 46 % 1013,9 hPa 0,0 l/m 2 min 0 min 426 W/m 35,4 km/h (5 Bft) 97,87 %
11.03.2022 15:36 14,6 C 18,3 C 10,0 C 46 % 1013,8 hPa 0,0 l/m 2 min 0 min 423 W/m 29,0 km/h (5 Bft) 100,00 %
11.03.2022 15:38 14,6 C 18,3 C 10,0 C 46 % 1013,9 hPa 0,0 l/m 2 min 0 min 416 W/m 29,0 km/h (5 Bft) 100,00 %
11.03.2022 15:40 14,6 C 18,3 C 10,0 C 46 % 1013,8 hPa 0,0 l/m 2 min 0 min 411 W/m 25,7 km/h (4 Bft) 100,00 %
11.03.2022 15:42 14,6 C 18,9 C 10,0 C 46 % 1013,8 hPa 0,0 l/m 2 min 0 min 407 W/m 29,0 km/h (5 Bft) 100,00 %
11.03.2022 15:44 14,6 C 18,3 C 10,0 C 46 % 1013,7 hPa 0,0 l/m 2 min 0 min 403 W/m 25,7 km/h (4 Bft) 100,00 %
11.03.2022 15:46 14,6 C 18,3 C 10,0 C 45 % 1013,7 hPa 0,0 l/m 2 min 0 min 397 W/m 32,2 km/h (5 Bft) 100,00 %
11.03.2022 15:48 14,6 C 18,9 C 10,0 C 46 % 1013,7 hPa 0,0 l/m 2 min 0 min 392 W/m 25,7 km/h (4 Bft) 100,00 %
11.03.2022 15:50 14,7 C 18,3 C 10,0 C 45 % 1013,7 hPa 0,0 l/m 2 min 0 min 387 W/m 35,4 km/h (5 Bft) 100,00 %
11.03.2022 15:52 14,6 C 17,8 C 9,4 C 45 % 1013,7 hPa 0,0 l/m 2 min 0 min 382 W/m 35,4 km/h (5 Bft) 100,00 %
11.03.2022 15:54 14,6 C 18,3 C 9,4 C 45 % 1013,7 hPa 0,0 l/m 2 min 0 min 377 W/m 22,5 km/h (4 Bft) 100,00 %
11.03.2022 15:56 14,6 C 18,3 C 9,4 C 45 % 1013,6 hPa 0,0 l/m 2 min 0 min 373 W/m 25,7 km/h (4 Bft) 97,87 %
11.03.2022 15:58 14,6 C 18,3 C 9,4 C 45 % 1013,6 hPa 0,0 l/m 2 min 0 min 367 W/m 19,3 km/h (3 Bft) 100,00 %
11.03.2022 16:00 14,6 C 18,3 C 9,4 C 45 % 1013,5 hPa 0,0 l/m 2 min 0 min 363 W/m 35,4 km/h (5 Bft) 100,00 %
11.03.2022 16:02 14,6 C 18,3 C 9,4 C 45 % 1013,5 hPa 0,0 l/m 2 min 0 min 357 W/m 25,7 km/h (4 Bft) 100,00 %
11.03.2022 16:04 14,6 C 18,9 C 9,4 C 45 % 1013,6 hPa 0,0 l/m 2 min 0 min 352 W/m 25,7 km/h (4 Bft) 100,00 %
11.03.2022 16:06 14,6 C 18,3 C 9,4 C 45 % 1013,5 hPa 0,0 l/m 2 min 0 min 346 W/m 29,0 km/h (5 Bft) 100,00 %
11.03.2022 16:08 14,7 C 18,3 C 9,4 C 45 % 1013,6 hPa 0,0 l/m 2 min 0 min 341 W/m 22,5 km/h (4 Bft) 100,00 %
11.03.2022 16:10 14,6 C 17,8 C 9,4 C 44 % 1013,5 hPa 0,0 l/m 2 min 0 min 336 W/m 35,4 km/h (5 Bft) 100,00 %
11.03.2022 16:12 14,6 C 17,8 C 9,4 C 44 % 1013,6 hPa 0,0 l/m 2 min 0 min 330 W/m 25,7 km/h (4 Bft) 100,00 %
11.03.2022 16:14 14,6 C 17,2 C 9,4 C 44 % 1013,5 hPa 0,0 l/m 2 min 0 min 325 W/m 29,0 km/h (5 Bft) 100,00 %
11.03.2022 16:16 14,5 C 17,2 C 9,4 C 44 % 1013,6 hPa 0,0 l/m 2 min 0 min 319 W/m 35,4 km/h (5 Bft) 100,00 %
11.03.2022 16:18 14,4 C 17,2 C 9,4 C 44 % 1013,5 hPa 0,0 l/m 2 min 0 min 315 W/m 25,7 km/h (4 Bft) 100,00 %
11.03.2022 16:20 14,4 C 17,8 C 9,4 C 45 % 1013,6 hPa 0,0 l/m 2 min 0 min 310 W/m 25,7 km/h (4 Bft) 100,00 %
11.03.2022 16:22 14,4 C 17,2 C 9,4 C 44 % 1013,6 hPa 0,0 l/m 2 min 0 min 304 W/m 25,7 km/h (4 Bft) 100,00 %
11.03.2022 16:24 14,3 C 16,7 C 9,4 C 44 % 1013,5 hPa 0,0 l/m 2 min 0 min 300 W/m 35,4 km/h (5 Bft) 100,00 %
11.03.2022 16:26 14,3 C 15,0 C 9,4 C 44 % 1013,5 hPa 0,0 l/m 2 min 0 min 293 W/m 35,4 km/h (5 Bft) 97,87 %
11.03.2022 16:28 14,3 C 14,4 C 9,4 C 45 % 1013,6 hPa 0,0 l/m 2 min 0 min 288 W/m 25,7 km/h (4 Bft) 97,87 %
11.03.2022 16:30 14,3 C 13,9 C 9,4 C 44 % 1013,6 hPa 0,0 l/m 2 min 0 min 280 W/m 35,4 km/h (5 Bft) 100,00 %
11.03.2022 16:32 14,3 C 13,9 C 9,4 C 44 % 1013,5 hPa 0,0 l/m 2 min 0 min 275 W/m 41,8 km/h (6 Bft) 100,00 %
11.03.2022 16:34 14,3 C 13,9 C 8,9 C 44 % 1013,5 hPa 0,0 l/m 2 min 0 min 269 W/m 22,5 km/h (4 Bft) 97,87 %
11.03.2022 16:36 14,3 C 13,9 C 8,9 C 45 % 1013,5 hPa 0,0 l/m 2 min 0 min 262 W/m 19,3 km/h (3 Bft) 100,00 %
11.03.2022 16:38 14,3 C 13,3 C 9,4 C 45 % 1013,5 hPa 0,0 l/m 2 min 0 min 256 W/m 29,0 km/h (5 Bft) 100,00 %
11.03.2022 16:40 14,3 C 13,3 C 9,4 C 44 % 1013,5 hPa 0,0 l/m 2 min 0 min 250 W/m 25,7 km/h (4 Bft) 100,00 %
11.03.2022 16:42 14,3 C 13,3 C 8,9 C 44 % 1013,5 hPa 0,0 l/m 2 min 0 min 234 W/m 38,6 km/h (5 Bft) 100,00 %
11.03.2022 16:44 14,3 C 13,3 C 8,9 C 44 % 1013,5 hPa 0,0 l/m 2 min 0 min 187 W/m 25,7 km/h (4 Bft) 97,87 %
11.03.2022 16:46 14,3 C 13,3 C 8,9 C 44 % 1013,5 hPa 0,0 l/m 2 min 0 min 155 W/m 22,5 km/h (4 Bft) 100,00 %
11.03.2022 16:48 14,2 C 13,3 C 8,9 C 44 % 1013,5 hPa 0,0 l/m 2 min 0 min 139 W/m 35,4 km/h (5 Bft) 100,00 %
11.03.2022 16:50 14,1 C 12,8 C 8,9 C 44 % 1013,6 hPa 0,0 l/m 2 min 0 min 134 W/m 29,0 km/h (5 Bft) 97,87 %
11.03.2022 16:52 14,0 C 12,8 C 8,9 C 44 % 1013,6 hPa 0,0 l/m 0 min 0 min 121 W/m 25,7 km/h (4 Bft) 95,74 %
11.03.2022 16:54 13,9 C 12,8 C 8,9 C 45 % 1013,5 hPa 0,0 l/m 2 min 0 min 121 W/m 19,3 km/h (3 Bft) 95,65 %
11.03.2022 16:56 13,9 C 12,8 C 8,9 C 45 % 1013,6 hPa 0,0 l/m 0 min 0 min 99 W/m 22,5 km/h (4 Bft) 95,74 %
11.03.2022 16:58 13,8 C 12,8 C 8,9 C 45 % 1013,5 hPa 0,0 l/m 0 min 0 min 85 W/m 19,3 km/h (3 Bft) 95,24 %
11.03.2022 17:00 13,8 C 12,8 C 8,9 C 45 % 1013,5 hPa 0,0 l/m 0 min 0 min 92 W/m 38,6 km/h (5 Bft) 93,62 %
11.03.2022 17:02 13,7 C 12,8 C 8,9 C 45 % 1013,5 hPa 0,0 l/m 0 min 0 min 90 W/m 22,5 km/h (4 Bft) 93,62 %
11.03.2022 17:04 13,7 C 12,8 C 8,3 C 45 % 1013,5 hPa 0,0 l/m 0 min 0 min 86 W/m 19,3 km/h (3 Bft) 96,00 %
11.03.2022 17:06 13,6 C 12,8 C 8,3 C 46 % 1013,5 hPa 0,0 l/m 0 min 0 min 84 W/m 19,3 km/h (3 Bft) 93,62 %
11.03.2022 17:08 13,6 C 12,8 C 8,3 C 46 % 1013,5 hPa 0,0 l/m 0 min 0 min 80 W/m 29,0 km/h (5 Bft) 95,74 %
11.03.2022 17:10 13,5 C 12,8 C 8,3 C 45 % 1013,5 hPa 0,0 l/m 0 min 0 min 73 W/m 29,0 km/h (5 Bft) 97,87 %
11.03.2022 17:12 13,4 C 12,8 C 8,3 C 45 % 1013,4 hPa 0,0 l/m 0 min 0 min 67 W/m 19,3 km/h (3 Bft) 95,65 %
11.03.2022 17:14 13,4 C 12,8 C 8,3 C 45 % 1013,5 hPa 0,0 l/m 0 min 0 min 52 W/m 29,0 km/h (5 Bft) 95,74 %
11.03.2022 17:16 13,3 C 12,8 C 8,3 C 44 % 1013,5 hPa 0,0 l/m 0 min 0 min 47 W/m 29,0 km/h (5 Bft) 89,36 %
11.03.2022 17:18 13,3 C 12,8 C 8,3 C 45 % 1013,5 hPa 0,0 l/m 0 min 0 min 40 W/m 25,7 km/h (4 Bft) 95,74 %
11.03.2022 17:20 13,3 C 12,2 C 8,3 C 45 % 1013,5 hPa 0,0 l/m 0 min 0 min 36 W/m 22,5 km/h (4 Bft) 93,62 %
11.03.2022 17:22 13,2 C 12,2 C 8,3 C 45 % 1013,6 hPa 0,0 l/m 0 min 0 min 33 W/m 16,1 km/h (3 Bft) 95,74 %
11.03.2022 17:24 13,2 C 12,2 C 8,3 C 45 % 1013,5 hPa 0,0 l/m 0 min 0 min 31 W/m 29,0 km/h (5 Bft) 95,65 %
11.03.2022 17:26 13,1 C 12,2 C 8,3 C 45 % 1013,6 hPa 0,0 l/m 0 min 0 min 30 W/m 16,1 km/h (3 Bft) 93,62 %
11.03.2022 17:28 13,1 C 12,2 C 8,3 C 46 % 1013,5 hPa 0,0 l/m 0 min 0 min 30 W/m 19,3 km/h (3 Bft) 93,62 %
11.03.2022 17:30 13,1 C 12,2 C 8,3 C 46 % 1013,5 hPa 0,0 l/m 0 min 0 min 29 W/m 16,1 km/h (3 Bft) 95,74 %
11.03.2022 17:32 13,0 C 12,2 C 7,8 C 46 % 1013,6 hPa 0,0 l/m 0 min 0 min 28 W/m 19,3 km/h (3 Bft) 91,49 %
11.03.2022 17:34 12,9 C 12,2 C 7,8 C 46 % 1013,6 hPa 0,0 l/m 0 min 0 min 28 W/m 19,3 km/h (3 Bft) 97,87 %
11.03.2022 17:36 12,9 C 12,2 C 7,8 C 46 % 1013,6 hPa 0,0 l/m 0 min 0 min 28 W/m 29,0 km/h (5 Bft) 95,65 %
11.03.2022 17:38 12,9 C 12,2 C 7,8 C 46 % 1013,6 hPa 0,0 l/m 0 min 0 min 28 W/m 22,5 km/h (4 Bft) 95,74 %
11.03.2022 17:40 12,8 C 12,2 C 7,8 C 46 % 1013,7 hPa 0,0 l/m 0 min 0 min 28 W/m 25,7 km/h (4 Bft) 97,87 %
11.03.2022 17:42 12,8 C 11,7 C 7,8 C 46 % 1013,7 hPa 0,0 l/m 0 min 0 min 28 W/m 19,3 km/h (3 Bft) 97,87 %
11.03.2022 17:44 12,7 C 11,7 C 7,8 C 46 % 1013,7 hPa 0,0 l/m 0 min 0 min 28 W/m 19,3 km/h (3 Bft) 97,87 %
11.03.2022 17:46 12,7 C 11,7 C 7,8 C 46 % 1013,8 hPa 0,0 l/m 0 min 0 min 28 W/m 22,5 km/h (4 Bft) 95,74 %
11.03.2022 17:48 12,7 C 11,7 C 7,8 C 46 % 1013,8 hPa 0,0 l/m 0 min 0 min 30 W/m 16,1 km/h (3 Bft) 97,83 %
11.03.2022 17:50 12,6 C 11,7 C 7,8 C 46 % 1013,7 hPa 0,0 l/m 0 min 0 min 32 W/m 25,7 km/h (4 Bft) 97,87 %
11.03.2022 17:52 12,6 C 11,7 C 7,8 C 46 % 1013,7 hPa 0,0 l/m 0 min 0 min 33 W/m 38,6 km/h (5 Bft) 97,87 %
11.03.2022 17:54 12,6 C 11,7 C 7,8 C 46 % 1013,8 hPa 0,0 l/m 0 min 0 min 30 W/m 22,5 km/h (4 Bft) 97,87 %
11.03.2022 17:56 12,6 C 11,7 C 7,8 C 47 % 1013,8 hPa 0,0 l/m 0 min 0 min 27 W/m 25,7 km/h (4 Bft) 97,87 %
11.03.2022 17:58 12,6 C 11,7 C 7,8 C 46 % 1013,9 hPa 0,0 l/m 0 min 0 min 23 W/m 25,7 km/h (4 Bft) 97,87 %
11.03.2022 18:00 12,5 C 11,7 C 7,8 C 46 % 1013,9 hPa 0,0 l/m 0 min 0 min 20 W/m 35,4 km/h (5 Bft) 97,83 %
11.03.2022 18:02 12,5 C 11,7 C 7,8 C 47 % 1013,9 hPa 0,0 l/m 0 min 0 min 19 W/m 25,7 km/h (4 Bft) 95,74 %
11.03.2022 18:04 12,4 C 11,7 C 7,8 C 47 % 1014,0 hPa 0,0 l/m 0 min 0 min 18 W/m 22,5 km/h (4 Bft) 100,00 %
11.03.2022 18:08 12,4 C 11,7 C 7,8 C 47 % 1013,9 hPa 0,0 l/m 0 min 0 min 16 W/m 25,7 km/h (4 Bft) 100,00 %
11.03.2022 18:10 12,3 C 11,7 C 7,2 C 47 % 1014,1 hPa 0,0 l/m 0 min 0 min 14 W/m 22,5 km/h (4 Bft) 100,00 %
11.03.2022 18:12 12,3 C 11,7 C 7,8 C 46 % 1014,1 hPa 0,0 l/m 0 min 0 min 13 W/m 25,7 km/h (4 Bft) 100,00 %
11.03.2022 18:14 12,3 C 11,7 C 7,2 C 47 % 1014,0 hPa 0,0 l/m 0 min 0 min 12 W/m 22,5 km/h (4 Bft) 100,00 %
11.03.2022 18:16 12,2 C 11,1 C 7,2 C 47 % 1014,0 hPa 0,0 l/m 0 min 0 min 11 W/m 32,2 km/h (5 Bft) 100,00 %
11.03.2022 18:18 12,2 C 11,1 C 7,2 C 47 % 1014,1 hPa 0,0 l/m 0 min 0 min 11 W/m 22,5 km/h (4 Bft) 100,00 %
11.03.2022 18:20 12,2 C 11,1 C 7,2 C 47 % 1014,1 hPa 0,0 l/m 0 min 0 min 9 W/m 25,7 km/h (4 Bft) 100,00 %
11.03.2022 18:22 12,2 C 11,1 C 7,2 C 47 % 1014,1 hPa 0,0 l/m 0 min 0 min 8 W/m 41,8 km/h (6 Bft) 65,96 %
11.03.2022 18:24 12,1 C 11,1 C 7,2 C 47 % 1014,1 hPa 0,0 l/m 0 min 0 min 7 W/m 29,0 km/h (5 Bft) 88,64 %
11.03.2022 18:26 12,1 C 11,1 C 7,2 C 47 % 1014,2 hPa 0,0 l/m 0 min 0 min 5 W/m 25,7 km/h (4 Bft) 100,00 %
11.03.2022 18:28 12,1 C 11,1 C 7,2 C 47 % 1014,2 hPa 0,0 l/m 0 min 0 min 5 W/m 29,0 km/h (5 Bft) 100,00 %
11.03.2022 18:30 12,0 C 11,1 C 7,2 C 47 % 1014,2 hPa 0,0 l/m 0 min 0 min 1 W/m 22,5 km/h (4 Bft) 100,00 %
11.03.2022 18:32 12,0 C 11,1 C 7,2 C 47 % 1014,2 hPa 0,0 l/m 0 min 0 min 0 W/m 25,7 km/h (4 Bft) 100,00 %
11.03.2022 18:34 11,9 C 11,1 C 7,2 C 47 % 1014,3 hPa 0,0 l/m 0 min 0 min 0 W/m 22,5 km/h (4 Bft) 97,87 %
11.03.2022 18:36 11,9 C 11,1 C 7,2 C 47 % 1014,3 hPa 0,0 l/m 0 min 0 min 0 W/m 29,0 km/h (5 Bft) 100,00 %
11.03.2022 18:38 11,9 C 11,1 C 7,2 C 47 % 1014,4 hPa 0,0 l/m 0 min 0 min 0 W/m 19,3 km/h (3 Bft) 100,00 %
11.03.2022 18:40 11,8 C 11,1 C 7,2 C 47 % 1014,3 hPa 0,0 l/m 0 min 0 min 0 W/m 19,3 km/h (3 Bft) 100,00 %
11.03.2022 18:42 11,8 C 10,6 C 7,2 C 47 % 1014,3 hPa 0,0 l/m 0 min 0 min 0 W/m 19,3 km/h (3 Bft) 97,87 %
11.03.2022 18:44 11,8 C 10,6 C 7,2 C 47 % 1014,4 hPa 0,0 l/m 0 min 0 min 0 W/m 16,1 km/h (3 Bft) 100,00 %
11.03.2022 18:46 11,8 C 10,6 C 6,7 C 48 % 1014,4 hPa 0,0 l/m 0 min 0 min 0 W/m 16,1 km/h (3 Bft) 100,00 %
11.03.2022 18:48 11,7 C 10,6 C 6,7 C 48 % 1014,4 hPa 0,0 l/m 0 min 0 min 0 W/m 19,3 km/h (3 Bft) 97,87 %
11.03.2022 18:50 11,7 C 10,6 C 6,7 C 48 % 1014,4 hPa 0,0 l/m 0 min 0 min 0 W/m 19,3 km/h (3 Bft) 100,00 %
11.03.2022 18:52 11,7 C 10,6 C 6,7 C 48 % 1014,4 hPa 0,0 l/m 0 min 0 min 0 W/m 22,5 km/h (4 Bft) 100,00 %
11.03.2022 18:54 11,6 C 10,6 C 6,7 C 48 % 1014,4 hPa 0,0 l/m 0 min 0 min 0 W/m 22,5 km/h (4 Bft) 100,00 %
11.03.2022 18:56 11,6 C 10,6 C 6,7 C 48 % 1014,4 hPa 0,0 l/m 0 min 0 min 0 W/m 22,5 km/h (4 Bft) 100,00 %
11.03.2022 18:58 11,6 C 10,6 C 6,7 C 48 % 1014,5 hPa 0,0 l/m 0 min 0 min 0 W/m 19,3 km/h (3 Bft) 100,00 %
11.03.2022 19:00 11,6 C 10,6 C 6,7 C 48 % 1014,5 hPa 0,0 l/m 0 min 0 min 0 W/m 29,0 km/h (5 Bft) 97,83 %
11.03.2022 19:02 11,5 C 10,6 C 6,7 C 48 % 1014,5 hPa 0,0 l/m 0 min 0 min 0 W/m 19,3 km/h (3 Bft) 100,00 %
11.03.2022 19:04 11,5 C 10,6 C 6,7 C 48 % 1014,6 hPa 0,0 l/m 0 min 0 min 0 W/m 16,1 km/h (3 Bft) 97,87 %
11.03.2022 19:06 11,4 C 10,6 C 6,7 C 48 % 1014,5 hPa 0,0 l/m 0 min 0 min 0 W/m 16,1 km/h (3 Bft) 100,00 %
11.03.2022 19:08 11,4 C 10,6 C 6,7 C 48 % 1014,5 hPa 0,0 l/m 0 min 0 min 0 W/m 25,7 km/h (4 Bft) 100,00 %
11.03.2022 19:10 11,4 C 10,6 C 6,7 C 48 % 1014,5 hPa 0,0 l/m 0 min 0 min 0 W/m 22,5 km/h (4 Bft) 95,74 %
11.03.2022 19:12 11,3 C 10,6 C 6,7 C 48 % 1014,6 hPa 0,0 l/m 0 min 0 min 0 W/m 16,1 km/h (3 Bft) 97,83 %
11.03.2022 19:14 11,3 C 10,6 C 6,7 C 48 % 1014,6 hPa 0,0 l/m 0 min 0 min 0 W/m 29,0 km/h (5 Bft) 97,87 %
11.03.2022 19:16 11,3 C 10,6 C 6,7 C 48 % 1014,6 hPa 0,0 l/m 0 min 0 min 0 W/m 19,3 km/h (3 Bft) 95,74 %
11.03.2022 19:18 11,3 C 10,6 C 6,7 C 48 % 1014,5 hPa 0,0 l/m 0 min 0 min 0 W/m 25,7 km/h (4 Bft) 97,87 %
11.03.2022 19:20 11,3 C 10,6 C 6,7 C 48 % 1014,6 hPa 0,0 l/m 0 min 0 min 0 W/m 22,5 km/h (4 Bft) 93,62 %
11.03.2022 19:22 11,2 C 10,6 C 6,7 C 48 % 1014,6 hPa 0,0 l/m 0 min 0 min 0 W/m 25,7 km/h (4 Bft) 97,87 %
11.03.2022 19:24 11,2 C 10,6 C 6,7 C 48 % 1014,5 hPa 0,0 l/m 0 min 0 min 0 W/m 19,3 km/h (3 Bft) 95,65 %
11.03.2022 19:26 11,2 C 10,6 C 6,7 C 48 % 1014,6 hPa 0,0 l/m 0 min 0 min 0 W/m 22,5 km/h (4 Bft) 95,74 %
11.03.2022 19:28 11,2 C 10,6 C 6,7 C 48 % 1014,7 hPa 0,0 l/m 0 min 0 min 0 W/m 29,0 km/h (5 Bft) 95,74 %
11.03.2022 19:30 11,2 C 10,6 C 6,7 C 48 % 1014,5 hPa 0,0 l/m 0 min 0 min 0 W/m 22,5 km/h (4 Bft) 93,62 %
11.03.2022 19:32 11,2 C 10,6 C 6,7 C 48 % 1014,6 hPa 0,0 l/m 0 min 0 min 0 W/m 19,3 km/h (3 Bft) 97,87 %
11.03.2022 19:34 11,2 C 10,6 C 6,7 C 48 % 1014,6 hPa 0,0 l/m 0 min 0 min 0 W/m 25,7 km/h (4 Bft) 95,74 %
11.03.2022 19:36 11,2 C 10,6 C 6,7 C 48 % 1014,6 hPa 0,0 l/m 0 min 0 min 0 W/m 35,4 km/h (5 Bft) 95,65 %
11.03.2022 19:38 11,2 C 10,6 C 6,7 C 48 % 1014,5 hPa 0,0 l/m 0 min 0 min 0 W/m 22,5 km/h (4 Bft) 93,62 %
11.03.2022 19:40 11,2 C 10,6 C 6,7 C 48 % 1014,5 hPa 0,0 l/m 0 min 0 min 0 W/m 35,4 km/h (5 Bft) 93,62 %
11.03.2022 19:42 11,2 C 10,6 C 6,7 C 47 % 1014,6 hPa 0,0 l/m 0 min 0 min 0 W/m 38,6 km/h (5 Bft) 93,62 %
11.03.2022 19:44 11,2 C 10,6 C 6,7 C 47 % 1014,5 hPa 0,0 l/m 0 min 0 min 0 W/m 41,8 km/h (6 Bft) 93,62 %
11.03.2022 19:46 11,2 C 10,6 C 6,7 C 47 % 1014,5 hPa 0,0 l/m 0 min 0 min 0 W/m 29,0 km/h (5 Bft) 89,36 %
11.03.2022 19:48 11,2 C 10,6 C 6,7 C 47 % 1014,6 hPa 0,0 l/m 0 min 0 min 0 W/m 25,7 km/h (4 Bft) 93,48 %
11.03.2022 19:50 11,1 C 10,6 C 6,7 C 47 % 1014,6 hPa 0,0 l/m 0 min 0 min 0 W/m 32,2 km/h (5 Bft) 91,49 %
11.03.2022 19:52 11,1 C 10,6 C 6,7 C 47 % 1014,6 hPa 0,0 l/m 0 min 0 min 0 W/m 25,7 km/h (4 Bft) 93,62 %
11.03.2022 19:54 11,1 C 10,0 C 6,7 C 47 % 1014,6 hPa 0,0 l/m 0 min 0 min 0 W/m 35,4 km/h (5 Bft) 95,74 %
11.03.2022 19:56 11,1 C 10,0 C 6,7 C 47 % 1014,5 hPa 0,0 l/m 0 min 0 min 0 W/m 32,2 km/h (5 Bft) 97,87 %
11.03.2022 19:58 11,1 C 10,0 C 6,7 C 47 % 1014,6 hPa 0,0 l/m 0 min 0 min 0 W/m 25,7 km/h (4 Bft) 97,87 %
11.03.2022 20:00 11,1 C 10,0 C 6,7 C 47 % 1014,6 hPa 0,0 l/m 0 min 0 min 0 W/m 35,4 km/h (5 Bft) 97,87 %
11.03.2022 20:02 11,1 C 10,0 C 6,1 C 47 % 1014,6 hPa 0,0 l/m 0 min 0 min 0 W/m 22,5 km/h (4 Bft) 97,83 %
11.03.2022 20:04 11,0 C 10,0 C 6,1 C 48 % 1014,6 hPa 0,0 l/m 0 min 0 min 0 W/m 25,7 km/h (4 Bft) 95,74 %
11.03.2022 20:06 11,0 C 10,0 C 6,1 C 48 % 1014,6 hPa 0,0 l/m 0 min 0 min 0 W/m 16,1 km/h (3 Bft) 95,74 %
11.03.2022 20:08 10,9 C 10,0 C 6,1 C 48 % 1014,6 hPa 0,0 l/m 0 min 0 min 0 W/m 22,5 km/h (4 Bft) 97,87 %
11.03.2022 20:10 10,9 C 10,0 C 6,1 C 48 % 1014,6 hPa 0,0 l/m 0 min 0 min 0 W/m 25,7 km/h (4 Bft) 97,87 %
11.03.2022 20:12 10,9 C 10,0 C 6,1 C 48 % 1014,5 hPa 0,0 l/m 0 min 0 min 0 W/m 29,0 km/h (5 Bft) 97,37 %
11.03.2022 20:14 10,9 C 10,0 C 6,1 C 48 % 1014,6 hPa 0,0 l/m 0 min 0 min 0 W/m 25,7 km/h (4 Bft) 97,87 %
11.03.2022 20:16 10,8 C 10,0 C 6,1 C 48 % 1014,6 hPa 0,0 l/m 0 min 0 min 0 W/m 22,5 km/h (4 Bft) 97,83 %
11.03.2022 20:18 10,8 C 10,0 C 6,1 C 48 % 1014,6 hPa 0,0 l/m 0 min 0 min 0 W/m 41,8 km/h (6 Bft) 97,87 %
11.03.2022 20:20 10,8 C 10,0 C 6,1 C 48 % 1014,6 hPa 0,0 l/m 0 min 0 min 0 W/m 29,0 km/h (5 Bft) 97,87 %
11.03.2022 20:22 10,8 C 10,0 C 6,1 C 48 % 1014,7 hPa 0,0 l/m 0 min 0 min 0 W/m 29,0 km/h (5 Bft) 97,87 %
11.03.2022 20:24 10,8 C 10,0 C 6,1 C 48 % 1014,6 hPa 0,0 l/m 0 min 0 min 0 W/m 22,5 km/h (4 Bft) 97,87 %
11.03.2022 20:26 10,8 C 10,0 C 6,1 C 48 % 1014,6 hPa 0,0 l/m 0 min 0 min 0 W/m 32,2 km/h (5 Bft) 97,83 %
11.03.2022 20:28 10,8 C 10,0 C 6,1 C 48 % 1014,7 hPa 0,0 l/m 0 min 0 min 0 W/m 29,0 km/h (5 Bft) 97,87 %
11.03.2022 20:30 10,7 C 10,0 C 6,1 C 48 % 1014,7 hPa 0,0 l/m 0 min 0 min 0 W/m 25,7 km/h (4 Bft) 100,00 %
11.03.2022 20:32 10,7 C 10,0 C 6,1 C 48 % 1014,7 hPa 0,0 l/m 0 min 0 min 0 W/m 38,6 km/h (5 Bft) 100,00 %
11.03.2022 20:34 10,7 C 10,0 C 6,1 C 48 % 1014,8 hPa 0,0 l/m 0 min 0 min 0 W/m 35,4 km/h (5 Bft) 100,00 %
11.03.2022 20:36 10,7 C 10,0 C 6,1 C 48 % 1014,7 hPa 0,0 l/m 0 min 0 min 0 W/m 19,3 km/h (3 Bft) 97,87 %
11.03.2022 20:38 10,7 C 10,0 C 6,1 C 48 % 1014,8 hPa 0,0 l/m 0 min 0 min 0 W/m 22,5 km/h (4 Bft) 100,00 %
11.03.2022 20:40 10,6 C 10,0 C 6,1 C 48 % 1014,8 hPa 0,0 l/m 0 min 0 min 0 W/m 29,0 km/h (5 Bft) 100,00 %
11.03.2022 20:42 10,6 C 9,4 C 5,6 C 48 % 1014,8 hPa 0,0 l/m 0 min 0 min 0 W/m 19,3 km/h (3 Bft) 100,00 %
11.03.2022 20:44 10,6 C 9,4 C 5,6 C 48 % 1014,8 hPa 0,0 l/m 0 min 0 min 0 W/m 25,7 km/h (4 Bft) 95,74 %
11.03.2022 20:46 10,6 C 9,4 C 5,6 C 48 % 1014,8 hPa 0,0 l/m 0 min 0 min 0 W/m 22,5 km/h (4 Bft) 100,00 %
11.03.2022 20:48 10,5 C 9,4 C 5,6 C 49 % 1014,8 hPa 0,0 l/m 0 min 0 min 0 W/m 22,5 km/h (4 Bft) 97,87 %
11.03.2022 20:50 10,4 C 9,4 C 5,6 C 48 % 1014,8 hPa 0,0 l/m 0 min 0 min 0 W/m 29,0 km/h (5 Bft) 100,00 %
11.03.2022 20:52 10,4 C 9,4 C 5,6 C 48 % 1014,8 hPa 0,0 l/m 0 min 0 min 0 W/m 19,3 km/h (3 Bft) 100,00 %
11.03.2022 20:54 10,4 C 9,4 C 5,6 C 48 % 1014,7 hPa 0,0 l/m 0 min 0 min 0 W/m 25,7 km/h (4 Bft) 100,00 %
11.03.2022 20:56 10,4 C 9,4 C 5,6 C 48 % 1014,8 hPa 0,0 l/m 0 min 0 min 0 W/m 25,7 km/h (4 Bft) 100,00 %
11.03.2022 20:58 10,4 C 9,4 C 5,6 C 48 % 1014,8 hPa 0,0 l/m 0 min 0 min 0 W/m 22,5 km/h (4 Bft) 100,00 %
11.03.2022 21:00 10,4 C 9,4 C 5,6 C 48 % 1014,9 hPa 0,0 l/m 0 min 0 min 0 W/m 25,7 km/h (4 Bft) 100,00 %
11.03.2022 21:02 10,4 C 9,4 C 5,6 C 48 % 1014,8 hPa 0,0 l/m 0 min 0 min 0 W/m 22,5 km/h (4 Bft) 100,00 %
11.03.2022 21:04 10,4 C 9,4 C 5,6 C 48 % 1014,8 hPa 0,0 l/m 0 min 0 min 0 W/m 25,7 km/h (4 Bft) 97,87 %
11.03.2022 21:06 10,3 C 9,4 C 5,6 C 48 % 1014,8 hPa 0,0 l/m 0 min 0 min 0 W/m 32,2 km/h (5 Bft) 97,87 %
11.03.2022 21:08 10,3 C 9,4 C 5,6 C 48 % 1014,8 hPa 0,0 l/m 0 min 0 min 0 W/m 22,5 km/h (4 Bft) 100,00 %
11.03.2022 21:10 10,3 C 9,4 C 5,6 C 48 % 1014,9 hPa 0,0 l/m 0 min 0 min 0 W/m 22,5 km/h (4 Bft) 100,00 %
11.03.2022 21:12 10,3 C 9,4 C 5,6 C 48 % 1014,9 hPa 0,0 l/m 0 min 0 min 0 W/m 25,7 km/h (4 Bft) 97,87 %
11.03.2022 21:14 10,3 C 9,4 C 5,6 C 48 % 1014,8 hPa 0,0 l/m 0 min 0 min 0 W/m 22,5 km/h (4 Bft) 100,00 %
11.03.2022 21:16 10,2 C 9,4 C 5,6 C 48 % 1014,9 hPa 0,0 l/m 0 min 0 min 0 W/m 25,7 km/h (4 Bft) 100,00 %
11.03.2022 21:18 10,2 C 9,4 C 5,6 C 48 % 1014,9 hPa 0,0 l/m 0 min 0 min 0 W/m 29,0 km/h (5 Bft) 97,87 %
11.03.2022 21:20 10,2 C 9,4 C 5,6 C 48 % 1015,0 hPa 0,0 l/m 0 min 0 min 0 W/m 22,5 km/h (4 Bft) 97,87 %
11.03.2022 21:22 10,2 C 9,4 C 5,6 C 48 % 1015,0 hPa 0,0 l/m 0 min 0 min 0 W/m 19,3 km/h (3 Bft) 97,87 %
11.03.2022 21:24 10,1 C 9,4 C 5,6 C 48 % 1015,0 hPa 0,0 l/m 0 min 0 min 0 W/m 16,1 km/h (3 Bft) 97,87 %
11.03.2022 21:26 10,1 C 9,4 C 5,6 C 48 % 1015,0 hPa 0,0 l/m 0 min 0 min 0 W/m 19,3 km/h (3 Bft) 97,83 %
11.03.2022 21:28 10,1 C 9,4 C 5,6 C 48 % 1015,1 hPa 0,0 l/m 0 min 0 min 0 W/m 19,3 km/h (3 Bft) 95,74 %
11.03.2022 21:30 10,1 C 9,4 C 5,6 C 48 % 1015,1 hPa 0,0 l/m 0 min 0 min 0 W/m 19,3 km/h (3 Bft) 97,87 %
11.03.2022 21:32 10,1 C 9,4 C 5,6 C 48 % 1015,1 hPa 0,0 l/m 0 min 0 min 0 W/m 19,3 km/h (3 Bft) 97,87 %
11.03.2022 21:34 10,1 C 8,9 C 5,6 C 48 % 1015,1 hPa 0,0 l/m 0 min 0 min 0 W/m 25,7 km/h (4 Bft) 97,87 %
11.03.2022 21:36 10,0 C 8,9 C 5,6 C 48 % 1015,1 hPa 0,0 l/m 0 min 0 min 0 W/m 19,3 km/h (3 Bft) 97,87 %
11.03.2022 21:38 10,0 C 8,9 C 5,0 C 49 % 1015,1 hPa 0,0 l/m 0 min 0 min 0 W/m 19,3 km/h (3 Bft) 95,65 %
11.03.2022 21:40 9,9 C 8,9 C 5,0 C 49 % 1015,1 hPa 0,0 l/m 0 min 0 min 0 W/m 16,1 km/h (3 Bft) 93,62 %
11.03.2022 21:42 9,9 C 8,9 C 5,0 C 49 % 1015,1 hPa 0,0 l/m 0 min 0 min 0 W/m 16,1 km/h (3 Bft) 95,74 %
11.03.2022 21:44 9,9 C 8,9 C 5,0 C 48 % 1015,1 hPa 0,0 l/m 0 min 0 min 0 W/m 25,7 km/h (4 Bft) 95,74 %
11.03.2022 21:46 9,8 C 8,9 C 5,0 C 48 % 1015,1 hPa 0,0 l/m 0 min 0 min 0 W/m 22,5 km/h (4 Bft) 93,62 %
11.03.2022 21:48 9,8 C 8,9 C 5,0 C 48 % 1015,1 hPa 0,0 l/m 0 min 0 min 0 W/m 12,9 km/h (3 Bft) 93,62 %
11.03.2022 21:50 9,8 C 8,9 C 5,0 C 48 % 1015,1 hPa 0,0 l/m 0 min 0 min 0 W/m 19,3 km/h (3 Bft) 95,65 %
11.03.2022 21:52 9,8 C 8,9 C 5,0 C 48 % 1015,1 hPa 0,0 l/m 0 min 0 min 0 W/m 19,3 km/h (3 Bft) 93,62 %
11.03.2022 21:54 9,8 C 8,9 C 5,0 C 48 % 1015,2 hPa 0,0 l/m 0 min 0 min 0 W/m 22,5 km/h (4 Bft) 97,87 %
11.03.2022 21:56 9,8 C 8,9 C 5,0 C 48 % 1015,1 hPa 0,0 l/m 0 min 0 min 0 W/m 25,7 km/h (4 Bft) 97,87 %
11.03.2022 21:58 9,8 C 8,9 C 5,0 C 48 % 1015,2 hPa 0,0 l/m 0 min 0 min 0 W/m 19,3 km/h (3 Bft) 97,87 %
11.03.2022 22:00 9,8 C 8,9 C 5,0 C 48 % 1015,1 hPa 0,0 l/m 0 min 0 min 0 W/m 16,1 km/h (3 Bft) 97,87 %
11.03.2022 22:02 9,8 C 8,9 C 5,0 C 48 % 1015,1 hPa 0,0 l/m 0 min 0 min 0 W/m 19,3 km/h (3 Bft) 97,83 %
11.03.2022 22:04 9,8 C 8,9 C 5,0 C 48 % 1015,2 hPa 0,0 l/m 0 min 0 min 0 W/m 19,3 km/h (3 Bft) 97,87 %
11.03.2022 22:06 9,8 C 8,9 C 5,0 C 48 % 1015,1 hPa 0,0 l/m 0 min 0 min 0 W/m 22,5 km/h (4 Bft) 97,96 %
11.03.2022 22:08 9,7 C 8,9 C 5,0 C 48 % 1015,1 hPa 0,0 l/m 0 min 0 min 0 W/m 22,5 km/h (4 Bft) 97,87 %
11.03.2022 22:10 9,7 C 8,9 C 5,0 C 48 % 1015,1 hPa 0,0 l/m 0 min 0 min 0 W/m 29,0 km/h (5 Bft) 97,87 %
11.03.2022 22:12 9,7 C 8,9 C 5,0 C 47 % 1015,1 hPa 0,0 l/m 0 min 0 min 0 W/m 25,7 km/h (4 Bft) 97,83 %
11.03.2022 22:14 9,7 C 8,9 C 5,0 C 47 % 1015,1 hPa 0,0 l/m 0 min 0 min 0 W/m 22,5 km/h (4 Bft) 97,87 %
11.03.2022 22:16 9,8 C 8,9 C 5,0 C 47 % 1015,2 hPa 0,0 l/m 0 min 0 min 0 W/m 25,7 km/h (4 Bft) 97,87 %
11.03.2022 22:18 9,8 C 8,9 C 5,0 C 47 % 1015,1 hPa 0,0 l/m 0 min 0 min 0 W/m 19,3 km/h (3 Bft) 97,87 %
11.03.2022 22:20 9,8 C 8,9 C 5,0 C 47 % 1015,1 hPa 0,0 l/m 0 min 0 min 0 W/m 19,3 km/h (3 Bft) 97,87 %
11.03.2022 22:22 9,8 C 8,9 C 5,0 C 47 % 1015,1 hPa 0,0 l/m 0 min 0 min 0 W/m 19,3 km/h (3 Bft) 97,87 %
11.03.2022 22:24 9,8 C 8,9 C 5,0 C 47 % 1015,1 hPa 0,0 l/m 0 min 0 min 0 W/m 32,2 km/h (5 Bft) 100,00 %
11.03.2022 22:26 9,8 C 8,9 C 5,0 C 47 % 1015,1 hPa 0,0 l/m 0 min 0 min 0 W/m 22,5 km/h (4 Bft) 100,00 %
11.03.2022 22:28 9,8 C 8,9 C 5,0 C 47 % 1015,1 hPa 0,0 l/m 0 min 0 min 0 W/m 19,3 km/h (3 Bft) 100,00 %
11.03.2022 22:30 9,8 C 8,9 C 5,0 C 47 % 1015,1 hPa 0,0 l/m 0 min 0 min 0 W/m 25,7 km/h (4 Bft) 100,00 %
11.03.2022 22:32 9,8 C 8,9 C 5,0 C 46 % 1015,0 hPa 0,0 l/m 0 min 0 min 0 W/m 25,7 km/h (4 Bft) 100,00 %
11.03.2022 22:34 9,8 C 8,9 C 5,0 C 46 % 1015,1 hPa 0,0 l/m 0 min 0 min 0 W/m 16,1 km/h (3 Bft) 100,00 %
11.03.2022 22:36 9,8 C 8,9 C 5,0 C 46 % 1015,1 hPa 0,0 l/m 0 min 0 min 0 W/m 22,5 km/h (4 Bft) 100,00 %
11.03.2022 22:38 9,8 C 8,9 C 5,0 C 46 % 1015,1 hPa 0,0 l/m 0 min 0 min 0 W/m 25,7 km/h (4 Bft) 97,87 %
11.03.2022 22:40 9,8 C 8,9 C 5,0 C 46 % 1015,0 hPa 0,0 l/m 0 min 0 min 0 W/m 19,3 km/h (3 Bft) 95,74 %
11.03.2022 22:42 9,8 C 8,9 C 5,0 C 46 % 1015,0 hPa 0,0 l/m 0 min 0 min 0 W/m 25,7 km/h (4 Bft) 97,87 %
11.03.2022 22:44 9,8 C 8,9 C 5,0 C 46 % 1015,0 hPa 0,0 l/m 0 min 0 min 0 W/m 25,7 km/h (4 Bft) 97,87 %
11.03.2022 22:46 9,8 C 8,9 C 5,0 C 45 % 1015,0 hPa 0,0 l/m 0 min 0 min 0 W/m 25,7 km/h (4 Bft) 95,74 %
11.03.2022 22:48 9,8 C 8,9 C 5,0 C 45 % 1015,1 hPa 0,0 l/m 0 min 0 min 0 W/m 25,7 km/h (4 Bft) 97,83 %
11.03.2022 22:50 9,8 C 8,9 C 5,0 C 45 % 1015,1 hPa 0,0 l/m 0 min 0 min 0 W/m 19,3 km/h (3 Bft) 97,87 %
11.03.2022 22:52 9,8 C 8,9 C 5,0 C 45 % 1015,0 hPa 0,0 l/m 0 min 0 min 0 W/m 22,5 km/h (4 Bft) 97,87 %
11.03.2022 22:54 9,8 C 8,9 C 5,0 C 45 % 1015,0 hPa 0,0 l/m 0 min 0 min 0 W/m 29,0 km/h (5 Bft) 97,87 %
11.03.2022 22:56 9,8 C 8,9 C 5,0 C 45 % 1015,0 hPa 0,0 l/m 0 min 0 min 0 W/m 29,0 km/h (5 Bft) 95,74 %
11.03.2022 22:58 9,8 C 8,9 C 5,0 C 45 % 1014,9 hPa 0,0 l/m 0 min 0 min 0 W/m 25,7 km/h (4 Bft) 97,87 %
11.03.2022 23:00 9,8 C 8,9 C 5,0 C 44 % 1014,9 hPa 0,0 l/m 0 min 0 min 0 W/m 22,5 km/h (4 Bft) 97,83 %
11.03.2022 23:02 9,9 C 9,4 C 5,0 C 44 % 1014,8 hPa 0,0 l/m 0 min 0 min 0 W/m 35,4 km/h (5 Bft) 95,74 %
11.03.2022 23:04 9,9 C 9,4 C 5,6 C 44 % 1014,8 hPa 0,0 l/m 0 min 0 min 0 W/m 35,4 km/h (5 Bft) 97,87 %
11.03.2022 23:06 9,9 C 9,4 C 5,6 C 44 % 1014,7 hPa 0,0 l/m 0 min 0 min 0 W/m 35,4 km/h (5 Bft) 95,74 %
11.03.2022 23:08 9,9 C 9,4 C 5,6 C 44 % 1014,8 hPa 0,0 l/m 0 min 0 min 0 W/m 35,4 km/h (5 Bft) 97,87 %
11.03.2022 23:10 10,0 C 9,4 C 5,6 C 43 % 1014,8 hPa 0,0 l/m 0 min 0 min 0 W/m 38,6 km/h (5 Bft) 97,83 %
11.03.2022 23:12 10,0 C 9,4 C 5,6 C 43 % 1014,8 hPa 0,0 l/m 0 min 0 min 0 W/m 25,7 km/h (4 Bft) 97,87 %
11.03.2022 23:14 10,0 C 9,4 C 5,6 C 44 % 1014,7 hPa 0,0 l/m 0 min 0 min 0 W/m 29,0 km/h (5 Bft) 93,62 %
11.03.2022 23:16 10,0 C 9,4 C 5,6 C 43 % 1014,8 hPa 0,0 l/m 0 min 0 min 0 W/m 29,0 km/h (5 Bft) 95,74 %
11.03.2022 23:18 10,0 C 9,4 C 5,6 C 44 % 1014,9 hPa 0,0 l/m 0 min 0 min 0 W/m 25,7 km/h (4 Bft) 95,74 %
11.03.2022 23:20 10,0 C 9,4 C 5,6 C 43 % 1014,9 hPa 0,0 l/m 0 min 0 min 0 W/m 29,0 km/h (5 Bft) 93,62 %
11.03.2022 23:22 10,0 C 9,4 C 5,6 C 43 % 1014,9 hPa 0,0 l/m 0 min 0 min 0 W/m 19,3 km/h (3 Bft) 95,65 %
11.03.2022 23:24 10,0 C 9,4 C 5,6 C 43 % 1014,9 hPa 0,0 l/m 0 min 0 min 0 W/m 25,7 km/h (4 Bft) 93,62 %
11.03.2022 23:26 10,1 C 9,4 C 5,6 C 43 % 1014,9 hPa 0,0 l/m 0 min 0 min 0 W/m 29,0 km/h (5 Bft) 95,74 %
11.03.2022 23:28 10,1 C 9,4 C 5,6 C 43 % 1014,9 hPa 0,0 l/m 0 min 0 min 0 W/m 29,0 km/h (5 Bft) 97,87 %
11.03.2022 23:30 10,1 C 9,4 C 5,6 C 43 % 1014,8 hPa 0,0 l/m 0 min 0 min 0 W/m 19,3 km/h (3 Bft) 97,87 %
11.03.2022 23:32 10,1 C 9,4 C 5,6 C 43 % 1014,9 hPa 0,0 l/m 0 min 0 min 0 W/m 25,7 km/h (4 Bft) 95,74 %
11.03.2022 23:34 10,1 C 9,4 C 5,6 C 43 % 1015,0 hPa 0,0 l/m 0 min 0 min 0 W/m 22,5 km/h (4 Bft) 95,65 %
11.03.2022 23:36 10,1 C 9,4 C 5,6 C 43 % 1015,0 hPa 0,0 l/m 0 min 0 min 0 W/m 22,5 km/h (4 Bft) 91,49 %
11.03.2022 23:38 10,1 C 9,4 C 5,6 C 43 % 1015,0 hPa 0,0 l/m 0 min 0 min 0 W/m 32,2 km/h (5 Bft) 95,74 %
11.03.2022 23:40 10,1 C 9,4 C 5,6 C 43 % 1015,0 hPa 0,0 l/m 0 min 0 min 0 W/m 19,3 km/h (3 Bft) 97,87 %
11.03.2022 23:42 10,1 C 9,4 C 5,6 C 43 % 1015,0 hPa 0,0 l/m 0 min 0 min 0 W/m 29,0 km/h (5 Bft) 97,87 %
11.03.2022 23:44 10,1 C 9,4 C 5,6 C 43 % 1015,0 hPa 0,0 l/m 0 min 0 min 0 W/m 25,7 km/h (4 Bft) 97,87 %
11.03.2022 23:46 10,1 C 9,4 C 5,6 C 43 % 1015,0 hPa 0,0 l/m 0 min 0 min 0 W/m 25,7 km/h (4 Bft) 97,83 %
11.03.2022 23:48 10,0 C 9,4 C 5,6 C 43 % 1015,1 hPa 0,0 l/m 0 min 0 min 0 W/m 16,1 km/h (3 Bft) 100,00 %
11.03.2022 23:50 10,0 C 9,4 C 5,6 C 43 % 1015,1 hPa 0,0 l/m 0 min 0 min 0 W/m 19,3 km/h (3 Bft) 100,00 %
11.03.2022 23:52 10,0 C 9,4 C 5,6 C 42 % 1015,0 hPa 0,0 l/m 0 min 0 min 0 W/m 25,7 km/h (4 Bft) 100,00 %
11.03.2022 23:54 10,0 C 9,4 C 5,6 C 43 % 1015,0 hPa 0,0 l/m 0 min 0 min 0 W/m 25,7 km/h (4 Bft) 100,00 %
11.03.2022 23:56 10,1 C 9,4 C 5,6 C 42 % 1015,1 hPa 0,0 l/m 0 min 0 min 0 W/m 38,6 km/h (5 Bft) 97,87 %
11.03.2022 23:58 10,1 C 9,4 C 5,6 C 42 % 1015,1 hPa 0,0 l/m 0 min 0 min 0 W/m 25,7 km/h (4 Bft) 100,00 %
_ Min-Zeit 07:10 05:58 06:28 23:52 17:12 - - - - 00:46 08:36
Minimum _ 5,6 C 5,0 C 1,1 C 42 % 1013,4 hPa - - - - 3,2 km/h (1 Bft) 60,87 %
_ Max-Zeit 15:22 13:44 11:34 07:44 00:00 00:00 12:08 00:00 12:36 09:08 00:28
Maximum _ 14,7 C 19,4 C 12,2 C 64 % 1019,8 hPa 0,0 l/m 4 min 0 min 635 W/m 51,5 km/h
S-SW (7 Bft)
100,00 %
Durchschnitt _ 9,7 C 10,1 C 5,4 C 52 % 1016,4 hPa #0,0 l/m #7:56 h #0 min. 327 W/m 24,2 km/h (4 Bft) 97,58 %
© 2022 W. Hausmann